Wetterdaten: Donnerstag, 05.03.2015
Datum Zeit Temp. Aussen +5cm Feuchte Auss Luftdruck Regen Sonnenschein Regendauer Solar Windben
05.03.2015 00:00 4,4 C 2,8 C 92 % 1032,3 hPa 0,0 l/m 0 min 0 min 0 W/m 12,6 km/h (3 Bft)
05.03.2015 00:02 4,4 C 2,8 C 92 % 1032,4 hPa 0,0 l/m 0 min 0 min 0 W/m 12,6 km/h (3 Bft)
05.03.2015 00:06 4,4 C 2,8 C 92 % 1032,6 hPa 0,0 l/m 0 min 0 min 0 W/m 16,7 km/h (3 Bft)
05.03.2015 00:08 4,4 C 2,8 C 92 % 1032,5 hPa 0,0 l/m 0 min 0 min 0 W/m 12,6 km/h (3 Bft)
05.03.2015 00:10 4,4 C 2,8 C 92 % 1032,5 hPa 0,0 l/m 0 min 0 min 0 W/m 10,5 km/h (2 Bft)
05.03.2015 00:12 4,4 C 2,8 C 92 % 1032,6 hPa 0,0 l/m 0 min 0 min 0 W/m 10,5 km/h (2 Bft)
05.03.2015 00:14 4,4 C 2,8 C 92 % 1032,6 hPa 0,0 l/m 0 min 0 min 0 W/m 16,7 km/h (3 Bft)
05.03.2015 00:16 4,4 C 2,8 C 92 % 1032,5 hPa 0,0 l/m 0 min 0 min 0 W/m 12,6 km/h (3 Bft)
05.03.2015 00:18 4,4 C 2,8 C 92 % 1032,6 hPa 0,0 l/m 0 min 0 min 0 W/m 20,9 km/h (4 Bft)
05.03.2015 00:20 4,4 C 2,8 C 92 % 1032,5 hPa 0,0 l/m 0 min 0 min 0 W/m 23,0 km/h (4 Bft)
05.03.2015 00:22 4,3 C 2,8 C 92 % 1032,6 hPa 0,0 l/m 0 min 0 min 0 W/m 12,6 km/h (3 Bft)
05.03.2015 00:24 4,3 C 2,8 C 92 % 1032,6 hPa 0,0 l/m 0 min 0 min 0 W/m 18,8 km/h (3 Bft)
05.03.2015 00:26 4,3 C 2,8 C 92 % 1032,6 hPa 0,0 l/m 0 min 0 min 0 W/m 25,1 km/h (4 Bft)
05.03.2015 00:28 4,3 C 2,8 C 92 % 1032,6 hPa 0,0 l/m 0 min 0 min 0 W/m 14,6 km/h (3 Bft)
05.03.2015 00:30 4,3 C 2,8 C 92 % 1032,6 hPa 0,0 l/m 0 min 0 min 0 W/m 12,6 km/h (3 Bft)
05.03.2015 00:32 4,3 C 2,8 C 92 % 1032,7 hPa 0,0 l/m 0 min 0 min 0 W/m 12,6 km/h (3 Bft)
05.03.2015 00:34 4,3 C 2,2 C 92 % 1032,7 hPa 0,0 l/m 0 min 0 min 0 W/m 12,6 km/h (3 Bft)
05.03.2015 00:36 4,3 C 2,8 C 92 % 1032,7 hPa 0,0 l/m 0 min 0 min 0 W/m 14,6 km/h (3 Bft)
05.03.2015 00:38 4,3 C 2,8 C 92 % 1032,7 hPa 0,0 l/m 0 min 0 min 0 W/m 14,6 km/h (3 Bft)
05.03.2015 00:40 4,3 C 2,8 C 92 % 1032,8 hPa 0,0 l/m 0 min 0 min 0 W/m 12,6 km/h (3 Bft)
05.03.2015 00:42 4,3 C 2,8 C 92 % 1032,9 hPa 0,0 l/m 0 min 0 min 0 W/m 12,6 km/h (3 Bft)
05.03.2015 00:44 4,3 C 2,8 C 92 % 1032,9 hPa 0,0 l/m 0 min 0 min 0 W/m 8,4 km/h (2 Bft)
05.03.2015 00:46 4,3 C 2,8 C 92 % 1033,0 hPa 0,0 l/m 0 min 0 min 0 W/m 14,6 km/h (3 Bft)
05.03.2015 00:48 4,3 C 2,8 C 92 % 1033,0 hPa 0,0 l/m 0 min 0 min 0 W/m 10,5 km/h (2 Bft)
05.03.2015 00:50 4,3 C 2,8 C 92 % 1033,0 hPa 0,0 l/m 0 min 0 min 0 W/m 18,8 km/h (3 Bft)
05.03.2015 00:52 4,3 C 2,8 C 92 % 1033,1 hPa 0,0 l/m 0 min 0 min 0 W/m 12,6 km/h (3 Bft)
05.03.2015 00:54 4,3 C 2,8 C 92 % 1033,1 hPa 0,0 l/m 0 min 0 min 0 W/m 16,7 km/h (3 Bft)
05.03.2015 00:56 4,3 C 2,8 C 92 % 1033,2 hPa 0,0 l/m 0 min 0 min 0 W/m 16,7 km/h (3 Bft)
05.03.2015 00:58 4,3 C 2,8 C 92 % 1033,2 hPa 0,0 l/m 0 min 0 min 0 W/m 16,7 km/h (3 Bft)
05.03.2015 01:00 4,3 C 2,8 C 92 % 1033,3 hPa 0,0 l/m 0 min 0 min 0 W/m 8,4 km/h (2 Bft)
05.03.2015 01:02 4,3 C 2,8 C 92 % 1033,4 hPa 0,0 l/m 0 min 0 min 0 W/m 14,6 km/h (3 Bft)
05.03.2015 01:04 4,3 C 2,8 C 92 % 1033,4 hPa 0,0 l/m 0 min 0 min 0 W/m 18,8 km/h (3 Bft)
05.03.2015 01:06 4,3 C 2,8 C 92 % 1033,4 hPa 0,0 l/m 0 min 0 min 0 W/m 14,6 km/h (3 Bft)
05.03.2015 01:08 4,3 C 2,8 C 92 % 1033,4 hPa 0,0 l/m 0 min 0 min 0 W/m 16,7 km/h (3 Bft)
05.03.2015 01:10 4,3 C 2,8 C 92 % 1033,4 hPa 0,0 l/m 0 min 0 min 0 W/m 14,6 km/h (3 Bft)
05.03.2015 01:12 4,2 C 2,8 C 92 % 1033,5 hPa 0,0 l/m 0 min 0 min 0 W/m 10,5 km/h (2 Bft)
05.03.2015 01:14 4,2 C 2,8 C 92 % 1033,7 hPa 0,0 l/m 0 min 0 min 0 W/m 14,6 km/h (3 Bft)
05.03.2015 01:16 4,2 C 2,8 C 92 % 1033,5 hPa 0,0 l/m 0 min 0 min 0 W/m 12,6 km/h (3 Bft)
05.03.2015 01:18 4,2 C 2,8 C 92 % 1033,5 hPa 0,0 l/m 0 min 0 min 0 W/m 16,7 km/h (3 Bft)
05.03.2015 01:20 4,2 C 2,8 C 92 % 1033,7 hPa 0,0 l/m 0 min 0 min 0 W/m 14,6 km/h (3 Bft)
05.03.2015 01:22 4,2 C 2,8 C 92 % 1033,7 hPa 0,0 l/m 0 min 0 min 0 W/m 12,6 km/h (3 Bft)
05.03.2015 01:24 4,2 C 2,8 C 92 % 1033,7 hPa 0,0 l/m 0 min 0 min 0 W/m 10,5 km/h (2 Bft)
05.03.2015 01:26 4,2 C 2,2 C 92 % 1033,8 hPa 0,0 l/m 0 min 0 min 0 W/m 8,4 km/h (2 Bft)
05.03.2015 01:28 4,2 C 2,2 C 92 % 1033,7 hPa 0,0 l/m 0 min 0 min 0 W/m 8,4 km/h (2 Bft)
05.03.2015 01:30 4,2 C 2,2 C 92 % 1033,9 hPa 0,0 l/m 0 min 0 min 0 W/m 12,6 km/h (3 Bft)
05.03.2015 01:32 4,2 C 2,2 C 92 % 1033,8 hPa 0,0 l/m 0 min 0 min 0 W/m 10,5 km/h (2 Bft)
05.03.2015 01:34 4,2 C 2,2 C 92 % 1033,8 hPa 0,0 l/m 0 min 0 min 0 W/m 8,4 km/h (2 Bft)
05.03.2015 01:36 4,2 C 2,2 C 92 % 1033,8 hPa 0,0 l/m 0 min 0 min 0 W/m 10,5 km/h (2 Bft)
05.03.2015 01:38 4,2 C 2,2 C 92 % 1033,8 hPa 0,0 l/m 0 min 0 min 0 W/m 8,4 km/h (2 Bft)
05.03.2015 01:40 4,1 C 2,2 C 92 % 1033,8 hPa 0,0 l/m 0 min 0 min 0 W/m 6,3 km/h (2 Bft)
05.03.2015 01:42 4,1 C 2,2 C 92 % 1033,8 hPa 0,0 l/m 0 min 0 min 0 W/m 14,6 km/h (3 Bft)
05.03.2015 01:44 4,1 C 2,2 C 92 % 1033,9 hPa 0,0 l/m 0 min 0 min 0 W/m 10,5 km/h (2 Bft)
05.03.2015 01:46 4,1 C 2,2 C 92 % 1033,9 hPa 0,0 l/m 0 min 0 min 0 W/m 10,5 km/h (2 Bft)
05.03.2015 01:48 4,1 C 2,2 C 92 % 1033,9 hPa 0,0 l/m 0 min 0 min 0 W/m 14,6 km/h (3 Bft)
05.03.2015 01:50 4,1 C 2,2 C 92 % 1033,9 hPa 0,0 l/m 0 min 0 min 0 W/m 16,7 km/h (3 Bft)
05.03.2015 01:52 4,1 C 2,2 C 92 % 1033,9 hPa 0,0 l/m 0 min 0 min 0 W/m 12,6 km/h (3 Bft)
05.03.2015 01:54 4,1 C 2,2 C 92 % 1034,1 hPa 0,0 l/m 0 min 0 min 0 W/m 12,6 km/h (3 Bft)
05.03.2015 01:56 4,0 C 2,2 C 92 % 1034,0 hPa 0,0 l/m 0 min 0 min 0 W/m 10,5 km/h (2 Bft)
05.03.2015 01:58 4,0 C 2,2 C 92 % 1034,0 hPa 0,0 l/m 0 min 0 min 0 W/m 8,4 km/h (2 Bft)
05.03.2015 02:00 4,0 C 2,2 C 92 % 1034,1 hPa 0,0 l/m 0 min 0 min 0 W/m 6,3 km/h (2 Bft)
05.03.2015 02:02 3,9 C 2,2 C 92 % 1034,1 hPa 0,0 l/m 0 min 0 min 0 W/m 10,5 km/h (2 Bft)
05.03.2015 02:04 3,9 C 2,2 C 92 % 1034,1 hPa 0,0 l/m 0 min 0 min 0 W/m 10,5 km/h (2 Bft)
05.03.2015 02:06 3,9 C 2,2 C 92 % 1034,1 hPa 0,0 l/m 0 min 0 min 0 W/m 8,4 km/h (2 Bft)
05.03.2015 02:08 3,9 C 2,2 C 92 % 1034,1 hPa 0,0 l/m 0 min 0 min 0 W/m 10,5 km/h (2 Bft)
05.03.2015 02:10 3,9 C 2,2 C 92 % 1034,1 hPa 0,0 l/m 0 min 0 min 0 W/m 10,5 km/h (2 Bft)
05.03.2015 02:12 3,9 C 2,2 C 92 % 1034,1 hPa 0,0 l/m 0 min 0 min 0 W/m 12,6 km/h (3 Bft)
05.03.2015 02:14 3,9 C 2,2 C 92 % 1034,2 hPa 0,0 l/m 0 min 0 min 0 W/m 12,6 km/h (3 Bft)
05.03.2015 02:16 3,9 C 2,2 C 92 % 1034,2 hPa 0,0 l/m 0 min 0 min 0 W/m 8,4 km/h (2 Bft)
05.03.2015 02:18 3,8 C 2,2 C 92 % 1034,2 hPa 0,0 l/m 0 min 0 min 0 W/m 10,5 km/h (2 Bft)
05.03.2015 02:20 3,8 C 2,2 C 92 % 1034,2 hPa 0,0 l/m 0 min 0 min 0 W/m 10,5 km/h (2 Bft)
05.03.2015 02:22 3,8 C 2,2 C 92 % 1034,2 hPa 0,0 l/m 0 min 0 min 0 W/m 10,5 km/h (2 Bft)
05.03.2015 02:24 3,8 C 2,2 C 92 % 1034,2 hPa 0,0 l/m 0 min 0 min 0 W/m 6,3 km/h (2 Bft)
05.03.2015 02:26 3,8 C 2,2 C 92 % 1034,2 hPa 0,0 l/m 0 min 0 min 0 W/m 8,4 km/h (2 Bft)
05.03.2015 02:28 3,8 C 2,2 C 92 % 1034,2 hPa 0,0 l/m 0 min 0 min 0 W/m 10,5 km/h (2 Bft)
05.03.2015 02:30 3,7 C 2,2 C 92 % 1034,2 hPa 0,0 l/m 0 min 0 min 0 W/m 10,5 km/h (2 Bft)
05.03.2015 02:32 3,7 C 2,2 C 92 % 1034,2 hPa 0,0 l/m 0 min 0 min 0 W/m 8,4 km/h (2 Bft)
05.03.2015 02:34 3,7 C 2,2 C 92 % 1034,3 hPa 0,0 l/m 0 min 0 min 0 W/m 8,4 km/h (2 Bft)
05.03.2015 02:36 3,7 C 2,2 C 92 % 1034,3 hPa 0,0 l/m 0 min 0 min 0 W/m 10,5 km/h (2 Bft)
05.03.2015 02:38 3,7 C 2,2 C 92 % 1034,2 hPa 0,0 l/m 0 min 0 min 0 W/m 12,6 km/h (3 Bft)
05.03.2015 02:40 3,7 C 2,2 C 92 % 1034,2 hPa 0,0 l/m 0 min 0 min 0 W/m 8,4 km/h (2 Bft)
05.03.2015 02:42 3,7 C 2,2 C 93 % 1034,3 hPa 0,0 l/m 0 min 0 min 0 W/m 10,5 km/h (2 Bft)
05.03.2015 02:44 3,6 C 2,2 C 93 % 1034,3 hPa 0,0 l/m 0 min 0 min 0 W/m 10,5 km/h (2 Bft)
05.03.2015 02:46 3,6 C 2,2 C 92 % 1034,4 hPa 0,0 l/m 0 min 0 min 0 W/m 14,6 km/h (3 Bft)
05.03.2015 02:48 3,6 C 2,2 C 92 % 1034,4 hPa 0,0 l/m 0 min 0 min 0 W/m 10,5 km/h (2 Bft)
05.03.2015 02:50 3,6 C 2,2 C 92 % 1034,4 hPa 0,0 l/m 0 min 0 min 0 W/m 12,6 km/h (3 Bft)
05.03.2015 02:52 3,6 C 1,7 C 92 % 1034,4 hPa 0,0 l/m 0 min 0 min 0 W/m 16,7 km/h (3 Bft)
05.03.2015 02:54 3,6 C 1,7 C 93 % 1034,4 hPa 0,0 l/m 0 min 0 min 0 W/m 10,5 km/h (2 Bft)
05.03.2015 02:56 3,6 C 1,7 C 93 % 1034,4 hPa 0,0 l/m 0 min 0 min 0 W/m 12,6 km/h (3 Bft)
05.03.2015 02:58 3,5 C 1,7 C 93 % 1034,4 hPa 0,0 l/m 0 min 0 min 0 W/m 8,4 km/h (2 Bft)
05.03.2015 03:00 3,5 C 1,7 C 93 % 1034,4 hPa 0,0 l/m 0 min 0 min 0 W/m 16,7 km/h (3 Bft)
05.03.2015 03:02 3,5 C 1,7 C 93 % 1034,4 hPa 0,0 l/m 0 min 0 min 0 W/m 12,6 km/h (3 Bft)
05.03.2015 03:04 3,4 C 1,7 C 93 % 1034,4 hPa 0,0 l/m 0 min 0 min 0 W/m 12,6 km/h (3 Bft)
05.03.2015 03:06 3,4 C 1,1 C 93 % 1034,4 hPa 0,0 l/m 0 min 0 min 0 W/m 12,6 km/h (3 Bft)
05.03.2015 03:08 3,4 C 1,7 C 93 % 1034,4 hPa 0,0 l/m 0 min 0 min 0 W/m 10,5 km/h (2 Bft)
05.03.2015 03:10 3,4 C 1,7 C 93 % 1034,4 hPa 0,0 l/m 0 min 0 min 0 W/m 8,4 km/h (2 Bft)
05.03.2015 03:12 3,3 C 1,7 C 93 % 1034,5 hPa 0,0 l/m 0 min 0 min 0 W/m 8,4 km/h (2 Bft)
05.03.2015 03:14 3,3 C 1,1 C 93 % 1034,5 hPa 0,0 l/m 0 min 0 min 0 W/m 10,5 km/h (2 Bft)
05.03.2015 03:16 3,3 C 1,1 C 93 % 1034,6 hPa 0,0 l/m 0 min 0 min 0 W/m 10,5 km/h (2 Bft)
05.03.2015 03:18 3,3 C 1,1 C 93 % 1034,6 hPa 0,0 l/m 0 min 0 min 0 W/m 8,4 km/h (2 Bft)
05.03.2015 03:20 3,2 C 1,1 C 93 % 1034,7 hPa 0,0 l/m 0 min 0 min 0 W/m 12,6 km/h (3 Bft)
05.03.2015 03:22 3,2 C 1,7 C 93 % 1034,7 hPa 0,0 l/m 0 min 0 min 0 W/m 14,6 km/h (3 Bft)
05.03.2015 03:24 3,2 C 1,7 C 93 % 1034,7 hPa 0,0 l/m 0 min 0 min 0 W/m 10,5 km/h (2 Bft)
05.03.2015 03:26 3,2 C 1,7 C 93 % 1034,7 hPa 0,0 l/m 0 min 0 min 0 W/m 10,5 km/h (2 Bft)
05.03.2015 03:28 3,2 C 1,7 C 93 % 1034,8 hPa 0,0 l/m 0 min 0 min 0 W/m 10,5 km/h (2 Bft)
05.03.2015 03:30 3,1 C 1,7 C 93 % 1034,8 hPa 0,0 l/m 0 min 0 min 0 W/m 8,4 km/h (2 Bft)
05.03.2015 03:32 3,1 C 1,7 C 93 % 1034,8 hPa 0,0 l/m 0 min 0 min 0 W/m 8,4 km/h (2 Bft)
05.03.2015 03:34 3,1 C 1,7 C 93 % 1034,8 hPa 0,0 l/m 0 min 0 min 0 W/m 8,4 km/h (2 Bft)
05.03.2015 03:36 3,1 C 1,1 C 93 % 1034,8 hPa 0,0 l/m 0 min 0 min 0 W/m 6,3 km/h (2 Bft)
05.03.2015 03:38 3,1 C 1,7 C 93 % 1034,8 hPa 0,0 l/m 0 min 0 min 0 W/m 6,3 km/h (2 Bft)
05.03.2015 03:40 3,1 C 1,7 C 93 % 1034,9 hPa 0,0 l/m 0 min 0 min 0 W/m 6,3 km/h (2 Bft)
05.03.2015 03:42 3,1 C 1,7 C 93 % 1034,8 hPa 0,0 l/m 0 min 0 min 0 W/m 8,4 km/h (2 Bft)
05.03.2015 03:44 3,0 C 1,1 C 93 % 1034,8 hPa 0,0 l/m 0 min 0 min 0 W/m 6,3 km/h (2 Bft)
05.03.2015 03:46 3,0 C 1,1 C 93 % 1034,9 hPa 0,0 l/m 0 min 0 min 0 W/m 6,3 km/h (2 Bft)
05.03.2015 03:48 3,0 C 1,1 C 93 % 1034,9 hPa 0,0 l/m 0 min 0 min 0 W/m 6,3 km/h (2 Bft)
05.03.2015 03:50 2,9 C 1,1 C 93 % 1034,9 hPa 0,0 l/m 0 min 0 min 0 W/m 8,4 km/h (2 Bft)
05.03.2015 03:52 2,9 C 1,1 C 93 % 1034,9 hPa 0,0 l/m 0 min 0 min 0 W/m 8,4 km/h (2 Bft)
05.03.2015 03:54 2,9 C 1,1 C 93 % 1034,9 hPa 0,0 l/m 0 min 0 min 0 W/m 8,4 km/h (2 Bft)
05.03.2015 03:56 2,9 C 1,1 C 93 % 1034,9 hPa 0,0 l/m 0 min 0 min 0 W/m 10,5 km/h (2 Bft)
05.03.2015 03:58 2,9 C 1,1 C 93 % 1034,9 hPa 0,0 l/m 0 min 0 min 0 W/m 6,3 km/h (2 Bft)
05.03.2015 04:00 2,9 C 1,1 C 93 % 1035,0 hPa 0,0 l/m 0 min 0 min 0 W/m 4,2 km/h (1 Bft)
05.03.2015 04:02 2,9 C 1,1 C 93 % 1035,1 hPa 0,0 l/m 0 min 0 min 0 W/m 6,3 km/h (2 Bft)
05.03.2015 04:04 2,9 C 1,1 C 93 % 1035,1 hPa 0,0 l/m 0 min 0 min 0 W/m 4,2 km/h (1 Bft)
05.03.2015 04:06 2,8 C 1,1 C 93 % 1035,3 hPa 0,0 l/m 0 min 0 min 0 W/m 4,2 km/h (1 Bft)
05.03.2015 04:08 2,8 C 1,1 C 93 % 1035,2 hPa 0,0 l/m 0 min 0 min 0 W/m 4,2 km/h (1 Bft)
05.03.2015 04:10 2,8 C 1,1 C 93 % 1035,3 hPa 0,0 l/m 0 min 0 min 0 W/m 8,4 km/h (2 Bft)
05.03.2015 04:12 2,8 C 1,1 C 93 % 1035,3 hPa 0,0 l/m 0 min 0 min 0 W/m 8,4 km/h (2 Bft)
05.03.2015 04:14 2,8 C 1,1 C 93 % 1035,3 hPa 0,0 l/m 0 min 0 min 0 W/m 8,4 km/h (2 Bft)
05.03.2015 04:16 2,8 C 1,1 C 93 % 1035,3 hPa 0,0 l/m 0 min 0 min 0 W/m 6,3 km/h (2 Bft)
05.03.2015 04:18 2,8 C 1,1 C 93 % 1035,3 hPa 0,0 l/m 0 min 0 min 0 W/m 6,3 km/h (2 Bft)
05.03.2015 04:20 2,8 C 1,1 C 93 % 1035,2 hPa 0,0 l/m 0 min 0 min 0 W/m 8,4 km/h (2 Bft)
05.03.2015 04:22 2,7 C 1,1 C 93 % 1035,2 hPa 0,0 l/m 0 min 0 min 0 W/m 4,2 km/h (1 Bft)
05.03.2015 04:24 2,7 C 1,1 C 94 % 1035,2 hPa 0,0 l/m 0 min 0 min 0 W/m 6,3 km/h (2 Bft)
05.03.2015 04:26 2,7 C 1,1 C 94 % 1035,1 hPa 0,0 l/m 0 min 0 min 0 W/m 8,4 km/h (2 Bft)
05.03.2015 04:28 2,7 C 1,1 C 94 % 1035,2 hPa 0,0 l/m 0 min 0 min 0 W/m 6,3 km/h (2 Bft)
05.03.2015 04:30 2,7 C 1,1 C 94 % 1035,2 hPa 0,0 l/m 0 min 0 min 0 W/m 6,3 km/h (2 Bft)
05.03.2015 04:32 2,7 C 1,1 C 94 % 1035,2 hPa 0,0 l/m 0 min 0 min 0 W/m 6,3 km/h (2 Bft)
05.03.2015 04:34 2,7 C 1,1 C 94 % 1035,3 hPa 0,0 l/m 0 min 0 min 0 W/m 6,3 km/h (2 Bft)
05.03.2015 04:36 2,6 C 1,1 C 94 % 1035,2 hPa 0,0 l/m 0 min 0 min 0 W/m 4,2 km/h (1 Bft)
05.03.2015 04:38 2,6 C 1,1 C 94 % 1035,2 hPa 0,0 l/m 0 min 0 min 0 W/m 8,4 km/h (2 Bft)
05.03.2015 04:40 2,6 C 1,1 C 94 % 1035,3 hPa 0,0 l/m 0 min 0 min 0 W/m 6,3 km/h (2 Bft)
05.03.2015 04:42 2,6 C 1,1 C 94 % 1035,3 hPa 0,0 l/m 0 min 0 min 0 W/m 8,4 km/h (2 Bft)
05.03.2015 04:44 2,6 C 1,1 C 94 % 1035,3 hPa 0,0 l/m 0 min 0 min 0 W/m 6,3 km/h (2 Bft)
05.03.2015 04:46 2,6 C 1,1 C 94 % 1035,3 hPa 0,0 l/m 0 min 0 min 0 W/m 4,2 km/h (1 Bft)
05.03.2015 04:48 2,6 C 1,1 C 94 % 1035,3 hPa 0,0 l/m 0 min 0 min 0 W/m 6,3 km/h (2 Bft)
05.03.2015 04:50 2,5 C 1,1 C 94 % 1035,3 hPa 0,0 l/m 0 min 0 min 0 W/m 4,2 km/h (1 Bft)
05.03.2015 04:52 2,5 C 1,1 C 94 % 1035,4 hPa 0,0 l/m 0 min 0 min 0 W/m 4,2 km/h (1 Bft)
05.03.2015 04:54 2,5 C 1,1 C 94 % 1035,4 hPa 0,0 l/m 0 min 0 min 0 W/m 4,2 km/h (1 Bft)
05.03.2015 04:56 2,5 C 1,1 C 94 % 1035,5 hPa 0,0 l/m 0 min 0 min 0 W/m 8,4 km/h (2 Bft)
05.03.2015 04:58 2,5 C 1,1 C 94 % 1035,5 hPa 0,0 l/m 0 min 0 min 0 W/m 6,3 km/h (2 Bft)
05.03.2015 05:00 2,5 C 1,1 C 94 % 1035,5 hPa 0,0 l/m 0 min 0 min 0 W/m 6,3 km/h (2 Bft)
05.03.2015 05:02 2,4 C 1,1 C 94 % 1035,5 hPa 0,0 l/m 0 min 0 min 0 W/m 6,3 km/h (2 Bft)
05.03.2015 05:04 2,4 C 0,6 C 94 % 1035,6 hPa 0,0 l/m 0 min 0 min 0 W/m 4,2 km/h (1 Bft)
05.03.2015 05:06 2,4 C 0,6 C 94 % 1035,6 hPa 0,0 l/m 0 min 0 min 0 W/m 6,3 km/h (2 Bft)
05.03.2015 05:08 2,4 C 0,6 C 94 % 1035,7 hPa 0,0 l/m 0 min 0 min 0 W/m 4,2 km/h (1 Bft)
05.03.2015 05:10 2,4 C 0,6 C 94 % 1035,7 hPa 0,0 l/m 0 min 0 min 0 W/m 4,2 km/h (1 Bft)
05.03.2015 05:12 2,4 C 0,6 C 94 % 1035,7 hPa 0,0 l/m 0 min 0 min 0 W/m 4,2 km/h (1 Bft)
05.03.2015 05:14 2,4 C 0,6 C 94 % 1035,7 hPa 0,0 l/m 0 min 0 min 0 W/m 6,3 km/h (2 Bft)
05.03.2015 05:16 2,4 C 0,6 C 94 % 1035,8 hPa 0,0 l/m 0 min 0 min 0 W/m 6,3 km/h (2 Bft)
05.03.2015 05:18 2,4 C 0,6 C 94 % 1035,8 hPa 0,0 l/m 0 min 0 min 0 W/m 8,4 km/h (2 Bft)
05.03.2015 05:20 2,4 C 0,6 C 94 % 1035,8 hPa 0,0 l/m 0 min 0 min 0 W/m 6,3 km/h (2 Bft)
05.03.2015 05:22 2,3 C 0,6 C 94 % 1035,8 hPa 0,0 l/m 0 min 0 min 0 W/m 8,4 km/h (2 Bft)
05.03.2015 05:24 2,3 C 0,6 C 94 % 1035,8 hPa 0,0 l/m 0 min 0 min 0 W/m 8,4 km/h (2 Bft)
05.03.2015 05:26 2,3 C 0,6 C 94 % 1035,8 hPa 0,0 l/m 0 min 0 min 0 W/m 6,3 km/h (2 Bft)
05.03.2015 05:28 2,3 C 0,6 C 94 % 1035,8 hPa 0,0 l/m 0 min 0 min 0 W/m 12,6 km/h (3 Bft)
05.03.2015 05:30 2,3 C 0,6 C 94 % 1035,8 hPa 0,0 l/m 0 min 0 min 0 W/m 12,6 km/h (3 Bft)
05.03.2015 05:32 2,3 C 1,1 C 94 % 1035,9 hPa 0,0 l/m 0 min 0 min 0 W/m 10,5 km/h (2 Bft)
05.03.2015 05:34 2,3 C 1,1 C 94 % 1035,9 hPa 0,0 l/m 0 min 0 min 0 W/m 8,4 km/h (2 Bft)
05.03.2015 05:36 2,3 C 1,1 C 94 % 1035,9 hPa 0,0 l/m 0 min 0 min 0 W/m 12,6 km/h (3 Bft)
05.03.2015 05:38 2,3 C 1,1 C 94 % 1036,0 hPa 0,0 l/m 0 min 0 min 0 W/m 8,4 km/h (2 Bft)
05.03.2015 05:40 2,3 C 1,1 C 94 % 1036,1 hPa 0,0 l/m 0 min 0 min 0 W/m 8,4 km/h (2 Bft)
05.03.2015 05:42 2,3 C 1,1 C 94 % 1036,1 hPa 0,0 l/m 0 min 0 min 0 W/m 6,3 km/h (2 Bft)
05.03.2015 05:44 2,3 C 1,7 C 94 % 1036,1 hPa 0,0 l/m 0 min 0 min 0 W/m 6,3 km/h (2 Bft)
05.03.2015 05:46 2,4 C 1,7 C 94 % 1036,2 hPa 0,0 l/m 0 min 0 min 0 W/m 10,5 km/h (2 Bft)
05.03.2015 05:48 2,4 C 1,7 C 94 % 1036,2 hPa 0,0 l/m 0 min 0 min 0 W/m 8,4 km/h (2 Bft)
05.03.2015 05:50 2,4 C 1,7 C 94 % 1036,2 hPa 0,0 l/m 0 min 0 min 0 W/m 8,4 km/h (2 Bft)
05.03.2015 05:52 2,4 C 1,7 C 95 % 1036,2 hPa 0,0 l/m 0 min 0 min 0 W/m 6,3 km/h (2 Bft)
05.03.2015 05:54 2,4 C 1,7 C 95 % 1036,2 hPa 0,0 l/m 0 min 0 min 0 W/m 10,5 km/h (2 Bft)
05.03.2015 05:56 2,4 C 1,7 C 95 % 1036,2 hPa 0,0 l/m 0 min 0 min 0 W/m 12,6 km/h (3 Bft)
05.03.2015 05:58 2,4 C 1,7 C 95 % 1036,2 hPa 0,0 l/m 0 min 0 min 0 W/m 10,5 km/h (2 Bft)
05.03.2015 06:00 2,5 C 1,7 C 95 % 1036,2 hPa 0,0 l/m 0 min 0 min 0 W/m 6,3 km/h (2 Bft)
05.03.2015 06:02 2,5 C 1,7 C 95 % 1036,2 hPa 0,0 l/m 0 min 0 min 0 W/m 4,2 km/h (1 Bft)
05.03.2015 06:04 2,6 C 1,7 C 95 % 1036,2 hPa 0,0 l/m 0 min 0 min 0 W/m 10,5 km/h (2 Bft)
05.03.2015 06:06 2,6 C 1,7 C 95 % 1036,3 hPa 0,0 l/m 0 min 0 min 0 W/m 8,4 km/h (2 Bft)
05.03.2015 06:08 2,6 C 1,7 C 95 % 1036,3 hPa 0,0 l/m 0 min 0 min 0 W/m 6,3 km/h (2 Bft)
05.03.2015 06:10 2,6 C 1,7 C 95 % 1036,3 hPa 0,0 l/m 0 min 0 min 0 W/m 6,3 km/h (2 Bft)
05.03.2015 06:12 2,6 C 1,7 C 95 % 1036,3 hPa 0,0 l/m 0 min 0 min 0 W/m 8,4 km/h (2 Bft)
05.03.2015 06:14 2,7 C 1,7 C 95 % 1036,3 hPa 0,0 l/m 0 min 0 min 0 W/m 6,3 km/h (2 Bft)
05.03.2015 06:16 2,7 C 1,7 C 95 % 1036,3 hPa 0,0 l/m 0 min 0 min 0 W/m 6,3 km/h (2 Bft)
05.03.2015 06:18 2,7 C 1,7 C 95 % 1036,3 hPa 0,0 l/m 0 min 0 min 0 W/m 10,5 km/h (2 Bft)
05.03.2015 06:20 2,7 C 1,7 C 95 % 1036,3 hPa 0,0 l/m 0 min 0 min 0 W/m 4,2 km/h (1 Bft)
05.03.2015 06:22 2,7 C 1,7 C 95 % 1036,3 hPa 0,0 l/m 0 min 0 min 0 W/m 2,1 km/h (1 Bft)
05.03.2015 06:24 2,8 C 1,7 C 95 % 1036,3 hPa 0,0 l/m 0 min 0 min 0 W/m 8,4 km/h (2 Bft)
05.03.2015 06:26 2,8 C 1,7 C 95 % 1036,3 hPa 0,0 l/m 0 min 0 min 0 W/m 8,4 km/h (2 Bft)
05.03.2015 06:28 2,8 C 1,7 C 95 % 1036,3 hPa 0,0 l/m 0 min 0 min 0 W/m 4,2 km/h (1 Bft)
05.03.2015 06:30 2,8 C 1,7 C 95 % 1036,3 hPa 0,0 l/m 0 min 0 min 0 W/m 6,3 km/h (2 Bft)
05.03.2015 06:32 2,8 C 1,7 C 95 % 1036,3 hPa 0,0 l/m 0 min 0 min 0 W/m 6,3 km/h (2 Bft)
05.03.2015 06:34 2,8 C 1,7 C 95 % 1036,3 hPa 0,0 l/m 0 min 0 min 0 W/m 14,6 km/h (3 Bft)
05.03.2015 06:36 2,9 C 1,7 C 95 % 1036,3 hPa 0,0 l/m 0 min 0 min 0 W/m 8,4 km/h (2 Bft)
05.03.2015 06:38 2,9 C 1,7 C 95 % 1036,3 hPa 0,0 l/m 0 min 0 min 0 W/m 8,4 km/h (2 Bft)
05.03.2015 06:40 2,9 C 1,7 C 95 % 1036,3 hPa 0,0 l/m 0 min 0 min 0 W/m 6,3 km/h (2 Bft)
05.03.2015 06:42 2,9 C 1,7 C 95 % 1036,3 hPa 0,0 l/m 0 min 0 min 0 W/m 6,3 km/h (2 Bft)
05.03.2015 06:44 2,9 C 1,7 C 95 % 1036,3 hPa 0,0 l/m 0 min 0 min 0 W/m 8,4 km/h (2 Bft)
05.03.2015 06:46 2,9 C 1,7 C 95 % 1036,3 hPa 0,0 l/m 0 min 0 min 0 W/m 8,4 km/h (2 Bft)
05.03.2015 06:48 2,9 C 1,7 C 95 % 1036,3 hPa 0,0 l/m 0 min 0 min 0 W/m 6,3 km/h (2 Bft)
05.03.2015 06:50 2,9 C 1,7 C 95 % 1036,3 hPa 0,0 l/m 0 min 0 min 0 W/m 8,4 km/h (2 Bft)
05.03.2015 06:52 2,9 C 1,7 C 95 % 1036,3 hPa 0,0 l/m 0 min 0 min 0 W/m 10,5 km/h (2 Bft)
05.03.2015 06:54 2,9 C 1,7 C 95 % 1036,3 hPa 0,0 l/m 0 min 0 min 0 W/m 8,4 km/h (2 Bft)
05.03.2015 06:56 2,9 C 1,7 C 95 % 1036,3 hPa 0,0 l/m 0 min 0 min 0 W/m 8,4 km/h (2 Bft)
05.03.2015 06:58 2,9 C 1,7 C 95 % 1036,3 hPa 0,0 l/m 0 min 0 min 0 W/m 8,4 km/h (2 Bft)
05.03.2015 07:00 2,9 C 1,7 C 95 % 1036,4 hPa 0,0 l/m 0 min 0 min 0 W/m 6,3 km/h (2 Bft)
05.03.2015 07:02 2,9 C 1,7 C 95 % 1036,3 hPa 0,0 l/m 0 min 0 min 0 W/m 4,2 km/h (1 Bft)
05.03.2015 07:04 2,9 C 1,7 C 95 % 1036,3 hPa 0,0 l/m 0 min 0 min 0 W/m 2,1 km/h (1 Bft)
05.03.2015 07:06 2,9 C 1,7 C 95 % 1036,3 hPa 0,0 l/m 0 min 0 min 0 W/m 4,2 km/h (1 Bft)
05.03.2015 07:08 2,9 C 1,7 C 95 % 1036,4 hPa 0,0 l/m 0 min 0 min 0 W/m 6,3 km/h (2 Bft)
05.03.2015 07:10 2,9 C 1,7 C 95 % 1036,4 hPa 0,0 l/m 0 min 0 min 0 W/m 8,4 km/h (2 Bft)
05.03.2015 07:12 2,9 C 1,7 C 95 % 1036,3 hPa 0,0 l/m 0 min 0 min 1 W/m 6,3 km/h (2 Bft)
05.03.2015 07:14 2,9 C 1,7 C 95 % 1036,4 hPa 0,0 l/m 0 min 0 min 5 W/m 4,2 km/h (1 Bft)
05.03.2015 07:16 2,9 C 1,7 C 96 % 1036,4 hPa 0,0 l/m 0 min 0 min 5 W/m 10,5 km/h (2 Bft)
05.03.2015 07:18 2,9 C 1,7 C 96 % 1036,5 hPa 0,0 l/m 0 min 0 min 5 W/m 8,4 km/h (2 Bft)
05.03.2015 07:20 2,9 C 1,7 C 96 % 1036,5 hPa 0,0 l/m 0 min 0 min 5 W/m 12,6 km/h (3 Bft)
05.03.2015 07:22 2,9 C 1,7 C 96 % 1036,5 hPa 0,0 l/m 0 min 0 min 7 W/m 8,4 km/h (2 Bft)
05.03.2015 07:24 2,9 C 1,7 C 96 % 1036,4 hPa 0,0 l/m 0 min 0 min 7 W/m 6,3 km/h (2 Bft)
05.03.2015 07:26 2,8 C 1,7 C 96 % 1036,5 hPa 0,0 l/m 0 min 0 min 8 W/m 8,4 km/h (2 Bft)
05.03.2015 07:28 2,8 C 1,7 C 96 % 1036,6 hPa 0,0 l/m 0 min 0 min 9 W/m 14,6 km/h (3 Bft)
05.03.2015 07:30 2,8 C 1,7 C 96 % 1036,6 hPa 0,0 l/m 0 min 0 min 10 W/m 8,4 km/h (2 Bft)
05.03.2015 07:32 2,8 C 1,7 C 96 % 1036,7 hPa 0,0 l/m 0 min 0 min 10 W/m 8,4 km/h (2 Bft)
05.03.2015 07:34 2,8 C 1,7 C 96 % 1036,7 hPa 0,0 l/m 0 min 0 min 10 W/m 8,4 km/h (2 Bft)
05.03.2015 07:36 2,8 C 1,7 C 96 % 1036,6 hPa 0,0 l/m 0 min 0 min 11 W/m 6,3 km/h (2 Bft)
05.03.2015 07:38 2,8 C 1,7 C 96 % 1036,6 hPa 0,0 l/m 0 min 0 min 12 W/m 6,3 km/h (2 Bft)
05.03.2015 07:40 2,8 C 1,7 C 96 % 1036,7 hPa 0,0 l/m 0 min 0 min 12 W/m 12,6 km/h (3 Bft)
05.03.2015 07:42 2,8 C 1,7 C 96 % 1036,8 hPa 0,0 l/m 0 min 0 min 12 W/m 10,5 km/h (2 Bft)
05.03.2015 07:44 2,8 C 1,7 C 96 % 1036,7 hPa 0,0 l/m 0 min 0 min 13 W/m 12,6 km/h (3 Bft)
05.03.2015 07:46 2,8 C 1,7 C 96 % 1036,7 hPa 0,0 l/m 0 min 0 min 12 W/m 8,4 km/h (2 Bft)
05.03.2015 07:48 2,8 C 1,7 C 96 % 1036,7 hPa 0,0 l/m 0 min 0 min 11 W/m 10,5 km/h (2 Bft)
05.03.2015 07:50 2,8 C 1,7 C 96 % 1036,7 hPa 0,0 l/m 0 min 0 min 15 W/m 8,4 km/h (2 Bft)
05.03.2015 07:52 2,8 C 1,7 C 96 % 1036,6 hPa 0,0 l/m 0 min 0 min 14 W/m 6,3 km/h (2 Bft)
05.03.2015 07:54 2,8 C 1,7 C 96 % 1036,6 hPa 0,0 l/m 0 min 0 min 19 W/m 10,5 km/h (2 Bft)
05.03.2015 07:56 2,8 C 1,7 C 96 % 1036,7 hPa 0,0 l/m 0 min 0 min 24 W/m 8,4 km/h (2 Bft)
05.03.2015 07:58 2,8 C 1,7 C 96 % 1036,7 hPa 0,0 l/m 0 min 0 min 20 W/m 10,5 km/h (2 Bft)
05.03.2015 08:00 2,8 C 1,7 C 96 % 1036,7 hPa 0,0 l/m 0 min 0 min 19 W/m 8,4 km/h (2 Bft)
05.03.2015 08:02 2,8 C 1,7 C 96 % 1036,6 hPa 0,0 l/m 0 min 0 min 21 W/m 8,4 km/h (2 Bft)
05.03.2015 08:04 2,8 C 1,7 C 96 % 1036,6 hPa 0,0 l/m 0 min 0 min 29 W/m 8,4 km/h (2 Bft)
05.03.2015 08:06 2,8 C 1,7 C 96 % 1036,8 hPa 0,0 l/m 0 min 0 min 32 W/m 8,4 km/h (2 Bft)
05.03.2015 08:08 2,8 C 1,7 C 96 % 1036,8 hPa 0,0 l/m 0 min 0 min 28 W/m 10,5 km/h (2 Bft)
05.03.2015 08:10 2,8 C 1,7 C 96 % 1036,8 hPa 0,0 l/m 0 min 0 min 25 W/m 10,5 km/h (2 Bft)
05.03.2015 08:12 2,8 C 1,7 C 96 % 1036,8 hPa 0,0 l/m 0 min 0 min 20 W/m 12,6 km/h (3 Bft)
05.03.2015 08:14 2,8 C 1,7 C 96 % 1036,8 hPa 0,0 l/m 0 min 0 min 24 W/m 6,3 km/h (2 Bft)
05.03.2015 08:16 2,8 C 2,2 C 96 % 1036,8 hPa 0,0 l/m 0 min 0 min 21 W/m 6,3 km/h (2 Bft)
05.03.2015 08:18 2,8 C 1,7 C 96 % 1036,8 hPa 0,0 l/m 0 min 0 min 27 W/m 6,3 km/h (2 Bft)
05.03.2015 08:20 2,8 C 2,2 C 96 % 1036,8 hPa 0,0 l/m 0 min 0 min 29 W/m 4,2 km/h (1 Bft)
05.03.2015 08:22 2,8 C 2,2 C 96 % 1036,9 hPa 0,0 l/m 0 min 0 min 28 W/m 2,1 km/h (1 Bft)
05.03.2015 08:24 2,8 C 2,2 C 96 % 1036,9 hPa 0,0 l/m 0 min 0 min 32 W/m 4,2 km/h (1 Bft)
05.03.2015 08:26 2,8 C 2,2 C 96 % 1036,9 hPa 0,0 l/m 0 min 0 min 41 W/m 6,3 km/h (2 Bft)
05.03.2015 08:28 2,8 C 2,2 C 96 % 1036,9 hPa 0,0 l/m 0 min 0 min 38 W/m 8,4 km/h (2 Bft)
05.03.2015 08:30 2,8 C 2,2 C 96 % 1037,0 hPa 0,0 l/m 0 min 0 min 43 W/m 10,5 km/h (2 Bft)
05.03.2015 08:32 2,8 C 2,2 C 96 % 1037,0 hPa 0,0 l/m 0 min 0 min 29 W/m 6,3 km/h (2 Bft)
05.03.2015 08:34 2,8 C 2,2 C 96 % 1037,0 hPa 0,0 l/m 0 min 0 min 39 W/m 6,3 km/h (2 Bft)
05.03.2015 08:36 2,9 C 2,2 C 96 % 1037,1 hPa 0,0 l/m 0 min 0 min 38 W/m 8,4 km/h (2 Bft)
05.03.2015 08:38 2,9 C 2,2 C 96 % 1037,2 hPa 0,0 l/m 0 min 0 min 35 W/m 8,4 km/h (2 Bft)
05.03.2015 08:40 2,9 C 2,2 C 96 % 1037,1 hPa 0,0 l/m 0 min 0 min 40 W/m 6,3 km/h (2 Bft)
05.03.2015 08:42 2,9 C 2,2 C 96 % 1037,3 hPa 0,0 l/m 0 min 0 min 42 W/m 10,5 km/h (2 Bft)
05.03.2015 08:44 2,9 C 2,2 C 96 % 1037,3 hPa 0,0 l/m 0 min 0 min 49 W/m 10,5 km/h (2 Bft)
05.03.2015 08:46 2,9 C 2,2 C 96 % 1037,3 hPa 0,0 l/m 0 min 0 min 40 W/m 10,5 km/h (2 Bft)
05.03.2015 08:48 2,9 C 2,2 C 96 % 1037,3 hPa 0,0 l/m 0 min 0 min 53 W/m 8,4 km/h (2 Bft)
05.03.2015 08:50 2,9 C 2,2 C 96 % 1037,4 hPa 0,0 l/m 0 min 0 min 41 W/m 8,4 km/h (2 Bft)
05.03.2015 08:52 2,9 C 2,2 C 96 % 1037,3 hPa 0,0 l/m 0 min 0 min 52 W/m 4,2 km/h (1 Bft)
05.03.2015 08:54 2,9 C 2,2 C 96 % 1037,3 hPa 0,0 l/m 0 min 0 min 51 W/m 8,4 km/h (2 Bft)
05.03.2015 08:56 2,9 C 2,2 C 96 % 1037,4 hPa 0,0 l/m 0 min 0 min 62 W/m 8,4 km/h (2 Bft)
05.03.2015 08:58 3,0 C 2,2 C 96 % 1037,3 hPa 0,0 l/m 0 min 0 min 49 W/m 6,3 km/h (2 Bft)
05.03.2015 09:00 3,0 C 2,2 C 96 % 1037,3 hPa 0,0 l/m 0 min 0 min 71 W/m 6,3 km/h (2 Bft)
05.03.2015 09:02 3,0 C 2,8 C 96 % 1037,3 hPa 0,0 l/m 0 min 0 min 50 W/m 6,3 km/h (2 Bft)
05.03.2015 09:04 3,0 C 2,2 C 96 % 1037,4 hPa 0,0 l/m 0 min 0 min 75 W/m 6,3 km/h (2 Bft)
05.03.2015 09:06 3,1 C 2,2 C 96 % 1037,4 hPa 0,0 l/m 0 min 0 min 55 W/m 6,3 km/h (2 Bft)
05.03.2015 09:08 3,1 C 2,2 C 96 % 1037,4 hPa 0,0 l/m 0 min 0 min 58 W/m 8,4 km/h (2 Bft)
05.03.2015 09:10 3,1 C 2,2 C 96 % 1037,4 hPa 0,0 l/m 0 min 0 min 67 W/m 10,5 km/h (2 Bft)
05.03.2015 09:12 3,1 C 2,8 C 96 % 1037,4 hPa 0,0 l/m 0 min 0 min 75 W/m 10,5 km/h (2 Bft)
05.03.2015 09:14 3,1 C 2,8 C 96 % 1037,4 hPa 0,0 l/m 0 min 0 min 67 W/m 6,3 km/h (2 Bft)
05.03.2015 09:16 3,1 C 2,8 C 96 % 1037,4 hPa 0,0 l/m 0 min 0 min 88 W/m 6,3 km/h (2 Bft)
05.03.2015 09:18 3,1 C 2,8 C 96 % 1037,6 hPa 0,0 l/m 0 min 0 min 62 W/m 8,4 km/h (2 Bft)
05.03.2015 09:20 3,2 C 2,8 C 96 % 1037,6 hPa 0,0 l/m 0 min 0 min 69 W/m 8,4 km/h (2 Bft)
05.03.2015 09:22 3,2 C 2,8 C 96 % 1037,6 hPa 0,0 l/m 0 min 0 min 73 W/m 8,4 km/h (2 Bft)
05.03.2015 09:24 3,2 C 2,8 C 96 % 1037,6 hPa 0,0 l/m 0 min 0 min 69 W/m 6,3 km/h (2 Bft)
05.03.2015 09:26 3,2 C 2,8 C 96 % 1037,6 hPa 0,0 l/m 0 min 0 min 64 W/m 10,5 km/h (2 Bft)
05.03.2015 09:28 3,2 C 2,8 C 96 % 1037,6 hPa 0,0 l/m 0 min 0 min 61 W/m 4,2 km/h (1 Bft)
05.03.2015 09:30 3,3 C 2,8 C 96 % 1037,6 hPa 0,0 l/m 0 min 0 min 61 W/m 10,5 km/h (2 Bft)
05.03.2015 09:32 3,3 C 2,8 C 96 % 1037,6 hPa 0,0 l/m 0 min 0 min 65 W/m 12,6 km/h (3 Bft)
05.03.2015 09:34 3,3 C 2,8 C 96 % 1037,6 hPa 0,0 l/m 0 min 0 min 67 W/m 12,6 km/h (3 Bft)
05.03.2015 09:36 3,3 C 2,8 C 97 % 1037,7 hPa 0,0 l/m 0 min 0 min 97 W/m 14,6 km/h (3 Bft)
05.03.2015 09:38 3,4 C 3,3 C 97 % 1037,6 hPa 0,0 l/m 0 min 0 min 96 W/m 10,5 km/h (2 Bft)
05.03.2015 09:40 3,4 C 3,3 C 97 % 1037,6 hPa 0,0 l/m 0 min 0 min 103 W/m 12,6 km/h (3 Bft)
05.03.2015 09:42 3,4 C 3,3 C 97 % 1037,6 hPa 0,0 l/m 0 min 0 min 126 W/m 8,4 km/h (2 Bft)
05.03.2015 09:44 3,5 C 3,3 C 97 % 1037,6 hPa 0,0 l/m 0 min 0 min 150 W/m 8,4 km/h (2 Bft)
05.03.2015 09:46 3,5 C 3,3 C 97 % 1037,5 hPa 0,0 l/m 0 min 0 min 117 W/m 10,5 km/h (2 Bft)
05.03.2015 09:48 3,6 C 3,9 C 97 % 1037,5 hPa 0,0 l/m 0 min 0 min 145 W/m 8,4 km/h (2 Bft)
05.03.2015 09:50 3,6 C 3,9 C 97 % 1037,5 hPa 0,0 l/m 0 min 0 min 138 W/m 8,4 km/h (2 Bft)
05.03.2015 09:52 3,7 C 3,9 C 97 % 1037,6 hPa 0,0 l/m 0 min 0 min 138 W/m 6,3 km/h (2 Bft)
05.03.2015 09:54 3,7 C 3,9 C 97 % 1037,7 hPa 0,0 l/m 0 min 0 min 129 W/m 6,3 km/h (2 Bft)
05.03.2015 09:56 3,7 C 3,9 C 97 % 1037,7 hPa 0,0 l/m 0 min 0 min 121 W/m 6,3 km/h (2 Bft)
05.03.2015 09:58 3,8 C 3,9 C 97 % 1037,6 hPa 0,0 l/m 0 min 0 min 82 W/m 10,5 km/h (2 Bft)
05.03.2015 10:00 3,8 C 3,9 C 97 % 1037,5 hPa 0,0 l/m 0 min 0 min 69 W/m 8,4 km/h (2 Bft)
05.03.2015 10:02 3,8 C 3,9 C 97 % 1037,4 hPa 0,0 l/m 0 min 0 min 96 W/m 6,3 km/h (2 Bft)
05.03.2015 10:04 3,9 C 3,9 C 97 % 1037,4 hPa 0,0 l/m 0 min 0 min 127 W/m 8,4 km/h (2 Bft)
05.03.2015 10:06 3,9 C 3,3 C 97 % 1037,4 hPa 0,0 l/m 0 min 0 min 85 W/m 8,4 km/h (2 Bft)
05.03.2015 10:08 3,9 C 3,9 C 97 % 1037,4 hPa 0,0 l/m 0 min 0 min 149 W/m 6,3 km/h (2 Bft)
05.03.2015 10:10 3,9 C 3,9 C 97 % 1037,4 hPa 0,0 l/m 2 min 0 min 221 W/m 6,3 km/h (2 Bft)
05.03.2015 10:12 4,0 C 3,9 C 97 % 1037,4 hPa 0,0 l/m 2 min 0 min 272 W/m 4,2 km/h (1 Bft)
05.03.2015 10:14 4,0 C 4,4 C 97 % 1037,4 hPa 0,0 l/m 2 min 0 min 240 W/m 8,4 km/h (2 Bft)
05.03.2015 10:16 4,1 C 3,9 C 97 % 1037,5 hPa 0,0 l/m 0 min 0 min 173 W/m 8,4 km/h (2 Bft)
05.03.2015 10:18 4,1 C 4,4 C 97 % 1037,5 hPa 0,0 l/m 2 min 0 min 245 W/m 10,5 km/h (2 Bft)
05.03.2015 10:20 4,2 C 5,0 C 97 % 1037,5 hPa 0,0 l/m 2 min 0 min 326 W/m 4,2 km/h (1 Bft)
05.03.2015 10:22 4,2 C 5,0 C 97 % 1037,4 hPa 0,0 l/m 2 min 0 min 298 W/m 6,3 km/h (2 Bft)
05.03.2015 10:24 4,3 C 5,0 C 97 % 1037,4 hPa 0,0 l/m 2 min 0 min 233 W/m 8,4 km/h (2 Bft)
05.03.2015 10:26 4,4 C 5,0 C 97 % 1037,4 hPa 0,0 l/m 0 min 0 min 192 W/m 8,4 km/h (2 Bft)
05.03.2015 10:28 4,4 C 5,0 C 97 % 1037,5 hPa 0,0 l/m 0 min 0 min 178 W/m 6,3 km/h (2 Bft)
05.03.2015 10:30 4,5 C 5,0 C 97 % 1037,5 hPa 0,0 l/m 2 min 0 min 217 W/m 6,3 km/h (2 Bft)
05.03.2015 10:32 4,6 C 4,4 C 97 % 1037,5 hPa 0,0 l/m 0 min 0 min 191 W/m 8,4 km/h (2 Bft)
05.03.2015 10:34 4,6 C 4,4 C 97 % 1037,5 hPa 0,0 l/m 0 min 0 min 131 W/m 6,3 km/h (2 Bft)
05.03.2015 10:36 4,7 C 4,4 C 97 % 1037,5 hPa 0,0 l/m 0 min 0 min 102 W/m 10,5 km/h (2 Bft)
05.03.2015 10:38 4,7 C 4,4 C 97 % 1037,5 hPa 0,0 l/m 0 min 0 min 65 W/m 6,3 km/h (2 Bft)
05.03.2015 10:40 4,7 C 4,4 C 97 % 1037,5 hPa 0,0 l/m 0 min 0 min 96 W/m 6,3 km/h (2 Bft)
05.03.2015 10:42 4,7 C 3,9 C 97 % 1037,7 hPa 0,0 l/m 0 min 0 min 92 W/m 6,3 km/h (2 Bft)
05.03.2015 10:44 4,7 C 3,9 C 97 % 1037,7 hPa 0,0 l/m 0 min 0 min 97 W/m 8,4 km/h (2 Bft)
05.03.2015 10:46 4,7 C 3,9 C 97 % 1037,6 hPa 0,0 l/m 0 min 0 min 206 W/m 8,4 km/h (2 Bft)
05.03.2015 10:48 4,8 C 4,4 C 97 % 1037,6 hPa 0,0 l/m 0 min 0 min 224 W/m 6,3 km/h (2 Bft)
05.03.2015 10:50 4,8 C 4,4 C 97 % 1037,6 hPa 0,0 l/m 2 min 0 min 256 W/m 8,4 km/h (2 Bft)
05.03.2015 10:52 4,8 C 4,4 C 97 % 1037,6 hPa 0,0 l/m 2 min 0 min 329 W/m 6,3 km/h (2 Bft)
05.03.2015 10:54 4,9 C 5,0 C 97 % 1037,7 hPa 0,0 l/m 2 min 0 min 355 W/m 6,3 km/h (2 Bft)
05.03.2015 10:56 4,9 C 5,0 C 97 % 1037,6 hPa 0,0 l/m 2 min 0 min 425 W/m 4,2 km/h (1 Bft)
05.03.2015 10:58 5,0 C 5,6 C 97 % 1037,7 hPa 0,0 l/m 2 min 0 min 336 W/m 6,3 km/h (2 Bft)
05.03.2015 11:00 5,1 C 5,6 C 97 % 1037,8 hPa 0,0 l/m 2 min 0 min 320 W/m 4,2 km/h (1 Bft)
05.03.2015 11:02 5,2 C 5,6 C 97 % 1037,7 hPa 0,0 l/m 2 min 0 min 291 W/m 8,4 km/h (2 Bft)
05.03.2015 11:04 5,3 C 5,6 C 97 % 1037,7 hPa 0,0 l/m 0 min 0 min 234 W/m 10,5 km/h (2 Bft)
05.03.2015 11:06 5,4 C 5,6 C 97 % 1037,7 hPa 0,0 l/m 2 min 0 min 246 W/m 10,5 km/h (2 Bft)
05.03.2015 11:08 5,4 C 5,6 C 97 % 1037,7 hPa 0,0 l/m 2 min 0 min 249 W/m 6,3 km/h (2 Bft)
05.03.2015 11:10 5,5 C 5,6 C 97 % 1037,7 hPa 0,0 l/m 0 min 0 min 207 W/m 8,4 km/h (2 Bft)
05.03.2015 11:12 5,6 C 5,6 C 97 % 1037,7 hPa 0,0 l/m 0 min 0 min 169 W/m 6,3 km/h (2 Bft)
05.03.2015 11:14 5,6 C 5,6 C 97 % 1037,6 hPa 0,0 l/m 0 min 0 min 179 W/m 6,3 km/h (2 Bft)
05.03.2015 11:16 5,7 C 5,6 C 97 % 1037,7 hPa 0,0 l/m 0 min 0 min 207 W/m 8,4 km/h (2 Bft)
05.03.2015 11:18 5,7 C 5,6 C 97 % 1037,6 hPa 0,0 l/m 0 min 0 min 175 W/m 16,7 km/h (3 Bft)
05.03.2015 11:20 5,7 C 5,6 C 97 % 1037,7 hPa 0,0 l/m 0 min 0 min 186 W/m 12,6 km/h (3 Bft)
05.03.2015 11:22 5,7 C 5,6 C 97 % 1037,7 hPa 0,0 l/m 0 min 0 min 192 W/m 10,5 km/h (2 Bft)
05.03.2015 11:24 5,7 C 5,6 C 97 % 1037,6 hPa 0,0 l/m 0 min 0 min 204 W/m 10,5 km/h (2 Bft)
05.03.2015 11:26 5,8 C 5,6 C 97 % 1037,6 hPa 0,0 l/m 0 min 0 min 234 W/m 8,4 km/h (2 Bft)
05.03.2015 11:28 5,8 C 5,6 C 97 % 1037,6 hPa 0,0 l/m 2 min 0 min 258 W/m 12,6 km/h (3 Bft)
05.03.2015 11:30 5,8 C 6,1 C 97 % 1037,6 hPa 0,0 l/m 2 min 0 min 266 W/m 8,4 km/h (2 Bft)
05.03.2015 11:32 5,9 C 6,1 C 97 % 1037,6 hPa 0,0 l/m 2 min 0 min 293 W/m 8,4 km/h (2 Bft)
05.03.2015 11:34 5,9 C 6,7 C 96 % 1037,6 hPa 0,0 l/m 2 min 0 min 305 W/m 8,4 km/h (2 Bft)
05.03.2015 11:36 6,0 C 6,7 C 96 % 1037,6 hPa 0,0 l/m 2 min 0 min 326 W/m 6,3 km/h (2 Bft)
05.03.2015 11:38 6,1 C 6,7 C 96 % 1037,6 hPa 0,0 l/m 2 min 0 min 320 W/m 12,6 km/h (3 Bft)
05.03.2015 11:40 6,1 C 6,7 C 96 % 1037,5 hPa 0,0 l/m 2 min 0 min 337 W/m 10,5 km/h (2 Bft)
05.03.2015 11:42 6,2 C 7,2 C 96 % 1037,6 hPa 0,0 l/m 2 min 0 min 345 W/m 8,4 km/h (2 Bft)
05.03.2015 11:44 6,3 C 7,2 C 96 % 1037,6 hPa 0,0 l/m 2 min 0 min 325 W/m 10,5 km/h (2 Bft)
05.03.2015 11:46 6,3 C 7,2 C 96 % 1037,5 hPa 0,0 l/m 2 min 0 min 326 W/m 8,4 km/h (2 Bft)
05.03.2015 11:48 6,4 C 7,2 C 96 % 1037,6 hPa 0,0 l/m 2 min 0 min 327 W/m 10,5 km/h (2 Bft)
05.03.2015 11:50 6,4 C 7,2 C 95 % 1037,6 hPa 0,0 l/m 2 min 0 min 310 W/m 8,4 km/h (2 Bft)
05.03.2015 11:52 6,6 C 7,2 C 95 % 1037,6 hPa 0,0 l/m 2 min 0 min 295 W/m 6,3 km/h (2 Bft)
05.03.2015 11:54 6,6 C 7,2 C 95 % 1037,6 hPa 0,0 l/m 2 min 0 min 288 W/m 6,3 km/h (2 Bft)
05.03.2015 11:56 6,7 C 7,2 C 94 % 1037,6 hPa 0,0 l/m 2 min 0 min 284 W/m 6,3 km/h (2 Bft)
05.03.2015 11:58 6,8 C 7,2 C 94 % 1037,6 hPa 0,0 l/m 2 min 0 min 290 W/m 8,4 km/h (2 Bft)
05.03.2015 12:00 6,8 C 7,2 C 94 % 1037,6 hPa 0,0 l/m 2 min 0 min 300 W/m 8,4 km/h (2 Bft)
05.03.2015 12:02 6,8 C 7,2 C 93 % 1037,6 hPa 0,0 l/m 2 min 0 min 288 W/m 6,3 km/h (2 Bft)
05.03.2015 12:06 6,9 C 7,2 C 92 % 1037,6 hPa 0,0 l/m 0 min 0 min 244 W/m 8,4 km/h (2 Bft)
05.03.2015 12:08 7,0 C 7,2 C 91 % 1037,6 hPa 0,0 l/m 0 min 0 min 222 W/m 8,4 km/h (2 Bft)
05.03.2015 12:10 7,1 C 7,2 C 90 % 1037,6 hPa 0,0 l/m 0 min 0 min 234 W/m 4,2 km/h (1 Bft)
05.03.2015 12:12 7,1 C 7,2 C 90 % 1037,6 hPa 0,0 l/m 0 min 0 min 260 W/m 8,4 km/h (2 Bft)
05.03.2015 12:14 7,1 C 7,2 C 89 % 1037,6 hPa 0,0 l/m 2 min 0 min 298 W/m 8,4 km/h (2 Bft)
05.03.2015 12:16 7,2 C 7,2 C 88 % 1037,6 hPa 0,0 l/m 2 min 0 min 335 W/m 14,6 km/h (3 Bft)
05.03.2015 12:18 7,2 C 7,2 C 87 % 1037,6 hPa 0,0 l/m 2 min 0 min 469 W/m 8,4 km/h (2 Bft)
05.03.2015 12:20 7,3 C 7,8 C 85 % 1037,6 hPa 0,0 l/m 2 min 0 min 452 W/m 12,6 km/h (3 Bft)
05.03.2015 12:22 7,3 C 7,2 C 84 % 1037,5 hPa 0,0 l/m 2 min 0 min 342 W/m 14,6 km/h (3 Bft)
05.03.2015 12:24 7,4 C 7,8 C 83 % 1037,5 hPa 0,0 l/m 2 min 0 min 346 W/m 12,6 km/h (3 Bft)
05.03.2015 12:26 7,4 C 7,8 C 82 % 1037,5 hPa 0,0 l/m 2 min 0 min 333 W/m 12,6 km/h (3 Bft)
05.03.2015 12:28 7,6 C 7,8 C 82 % 1037,5 hPa 0,0 l/m 2 min 0 min 308 W/m 10,5 km/h (2 Bft)
05.03.2015 12:30 7,6 C 8,3 C 82 % 1037,5 hPa 0,0 l/m 2 min 0 min 320 W/m 12,6 km/h (3 Bft)
05.03.2015 12:32 7,7 C 8,3 C 81 % 1037,5 hPa 0,0 l/m 2 min 0 min 336 W/m 14,6 km/h (3 Bft)
05.03.2015 12:34 7,8 C 8,3 C 80 % 1037,5 hPa 0,0 l/m 2 min 0 min 349 W/m 10,5 km/h (2 Bft)
05.03.2015 12:36 7,8 C 8,3 C 79 % 1037,5 hPa 0,0 l/m 2 min 0 min 373 W/m 12,6 km/h (3 Bft)
05.03.2015 12:38 7,9 C 8,9 C 79 % 1037,5 hPa 0,0 l/m 2 min 0 min 500 W/m 6,3 km/h (2 Bft)
05.03.2015 12:40 8,0 C 8,9 C 79 % 1037,4 hPa 0,0 l/m 2 min 0 min 583 W/m 6,3 km/h (2 Bft)
05.03.2015 12:42 8,1 C 8,9 C 79 % 1037,4 hPa 0,0 l/m 2 min 0 min 503 W/m 10,5 km/h (2 Bft)
05.03.2015 12:44 8,2 C 8,9 C 78 % 1037,3 hPa 0,0 l/m 2 min 0 min 447 W/m 10,5 km/h (2 Bft)
05.03.2015 12:46 8,3 C 8,9 C 78 % 1037,3 hPa 0,0 l/m 2 min 0 min 378 W/m 10,5 km/h (2 Bft)
05.03.2015 12:48 8,4 C 8,9 C 77 % 1037,3 hPa 0,0 l/m 2 min 0 min 340 W/m 8,4 km/h (2 Bft)
05.03.2015 12:50 8,4 C 8,9 C 77 % 1037,3 hPa 0,0 l/m 2 min 0 min 306 W/m 16,7 km/h (3 Bft)
05.03.2015 12:52 8,5 C 8,9 C 77 % 1037,3 hPa 0,0 l/m 2 min 0 min 301 W/m 10,5 km/h (2 Bft)
05.03.2015 12:54 8,6 C 8,9 C 76 % 1037,2 hPa 0,0 l/m 2 min 0 min 305 W/m 12,6 km/h (3 Bft)
05.03.2015 12:56 8,6 C 8,9 C 76 % 1037,3 hPa 0,0 l/m 2 min 0 min 305 W/m 10,5 km/h (2 Bft)
05.03.2015 12:58 8,6 C 8,9 C 75 % 1037,4 hPa 0,0 l/m 2 min 0 min 333 W/m 10,5 km/h (2 Bft)
05.03.2015 13:00 8,6 C 8,9 C 75 % 1037,4 hPa 0,0 l/m 2 min 0 min 357 W/m 10,5 km/h (2 Bft)
05.03.2015 13:02 8,7 C 8,9 C 74 % 1037,4 hPa 0,0 l/m 2 min 0 min 326 W/m 14,6 km/h (3 Bft)
05.03.2015 13:04 8,7 C 8,9 C 74 % 1037,3 hPa 0,0 l/m 2 min 0 min 313 W/m 12,6 km/h (3 Bft)
05.03.2015 13:06 8,7 C 8,9 C 73 % 1037,3 hPa 0,0 l/m 2 min 0 min 322 W/m 14,6 km/h (3 Bft)
05.03.2015 13:08 8,7 C 8,9 C 72 % 1037,3 hPa 0,0 l/m 2 min 0 min 321 W/m 10,5 km/h (2 Bft)
05.03.2015 13:10 8,7 C 8,9 C 72 % 1037,2 hPa 0,0 l/m 2 min 0 min 317 W/m 10,5 km/h (2 Bft)
05.03.2015 13:12 8,7 C 8,9 C 73 % 1037,2 hPa 0,0 l/m 2 min 0 min 299 W/m 14,6 km/h (3 Bft)
05.03.2015 13:14 8,7 C 8,9 C 73 % 1037,2 hPa 0,0 l/m 2 min 0 min 280 W/m 14,6 km/h (3 Bft)
05.03.2015 13:16 8,7 C 8,3 C 72 % 1037,2 hPa 0,0 l/m 2 min 0 min 266 W/m 14,6 km/h (3 Bft)
05.03.2015 13:18 8,7 C 8,9 C 72 % 1037,1 hPa 0,0 l/m 0 min 0 min 258 W/m 14,6 km/h (3 Bft)
05.03.2015 13:20 8,7 C 8,3 C 72 % 1037,2 hPa 0,0 l/m 0 min 0 min 241 W/m 14,6 km/h (3 Bft)
05.03.2015 13:22 8,7 C 8,3 C 72 % 1037,2 hPa 0,0 l/m 0 min 0 min 237 W/m 14,6 km/h (3 Bft)
05.03.2015 13:24 8,7 C 8,3 C 72 % 1037,3 hPa 0,0 l/m 0 min 0 min 235 W/m 14,6 km/h (3 Bft)
05.03.2015 13:26 8,7 C 8,3 C 72 % 1037,2 hPa 0,0 l/m 0 min 0 min 250 W/m 14,6 km/h (3 Bft)
05.03.2015 13:28 8,7 C 8,3 C 72 % 1037,1 hPa 0,0 l/m 2 min 0 min 269 W/m 16,7 km/h (3 Bft)
05.03.2015 13:30 8,7 C 8,3 C 71 % 1037,2 hPa 0,0 l/m 2 min 0 min 280 W/m 14,6 km/h (3 Bft)
05.03.2015 13:32 8,7 C 8,9 C 71 % 1037,0 hPa 0,0 l/m 2 min 0 min 267 W/m 10,5 km/h (2 Bft)
05.03.2015 13:34 8,7 C 8,9 C 71 % 1037,0 hPa 0,0 l/m 2 min 0 min 273 W/m 12,6 km/h (3 Bft)
05.03.2015 13:36 8,7 C 8,9 C 72 % 1037,0 hPa 0,0 l/m 2 min 0 min 292 W/m 18,8 km/h (3 Bft)
05.03.2015 13:38 8,7 C 8,9 C 71 % 1037,0 hPa 0,0 l/m 2 min 0 min 277 W/m 12,6 km/h (3 Bft)
05.03.2015 13:40 8,7 C 8,9 C 71 % 1037,0 hPa 0,0 l/m 0 min 0 min 245 W/m 12,6 km/h (3 Bft)
05.03.2015 13:42 8,8 C 8,9 C 71 % 1037,0 hPa 0,0 l/m 0 min 0 min 252 W/m 8,4 km/h (2 Bft)
05.03.2015 13:44 8,8 C 8,9 C 71 % 1036,9 hPa 0,0 l/m 2 min 0 min 269 W/m 16,7 km/h (3 Bft)
05.03.2015 13:46 8,8 C 8,3 C 71 % 1036,9 hPa 0,0 l/m 2 min 0 min 300 W/m 18,8 km/h (3 Bft)
05.03.2015 13:48 8,8 C 8,9 C 71 % 1036,9 hPa 0,0 l/m 2 min 0 min 280 W/m 12,6 km/h (3 Bft)
05.03.2015 13:50 8,8 C 8,9 C 71 % 1036,9 hPa 0,0 l/m 2 min 0 min 257 W/m 14,6 km/h (3 Bft)
05.03.2015 13:52 8,9 C 8,9 C 71 % 1036,9 hPa 0,0 l/m 0 min 0 min 254 W/m 14,6 km/h (3 Bft)
05.03.2015 13:54 8,9 C 8,9 C 71 % 1036,8 hPa 0,0 l/m 2 min 0 min 297 W/m 16,7 km/h (3 Bft)
05.03.2015 13:56 8,9 C 8,9 C 71 % 1036,8 hPa 0,0 l/m 2 min 0 min 376 W/m 14,6 km/h (3 Bft)
05.03.2015 13:58 8,9 C 9,4 C 71 % 1036,7 hPa 0,0 l/m 2 min 0 min 374 W/m 12,6 km/h (3 Bft)
05.03.2015 14:00 9,0 C 9,4 C 71 % 1036,7 hPa 0,0 l/m 2 min 0 min 388 W/m 12,6 km/h (3 Bft)
05.03.2015 14:02 9,1 C 10,0 C 71 % 1036,6 hPa 0,0 l/m 2 min 0 min 429 W/m 12,6 km/h (3 Bft)
05.03.2015 14:04 9,2 C 10,0 C 70 % 1036,6 hPa 0,0 l/m 2 min 0 min 454 W/m 16,7 km/h (3 Bft)
05.03.2015 14:06 9,2 C 10,0 C 70 % 1036,5 hPa 0,0 l/m 2 min 0 min 381 W/m 20,9 km/h (4 Bft)
05.03.2015 14:08 9,3 C 10,0 C 69 % 1036,5 hPa 0,0 l/m 2 min 0 min 390 W/m 16,7 km/h (3 Bft)
05.03.2015 14:10 9,4 C 10,0 C 69 % 1036,5 hPa 0,0 l/m 2 min 0 min 335 W/m 14,6 km/h (3 Bft)
05.03.2015 14:12 9,4 C 9,4 C 67 % 1036,4 hPa 0,0 l/m 2 min 0 min 286 W/m 16,7 km/h (3 Bft)
05.03.2015 14:14 9,4 C 9,4 C 68 % 1036,5 hPa 0,0 l/m 2 min 0 min 270 W/m 12,6 km/h (3 Bft)
05.03.2015 14:16 9,4 C 9,4 C 67 % 1036,5 hPa 0,0 l/m 2 min 0 min 276 W/m 14,6 km/h (3 Bft)
05.03.2015 14:18 9,4 C 9,4 C 66 % 1036,5 hPa 0,0 l/m 2 min 0 min 292 W/m 16,7 km/h (3 Bft)
05.03.2015 14:20 9,4 C 9,4 C 66 % 1036,5 hPa 0,0 l/m 2 min 0 min 316 W/m 18,8 km/h (3 Bft)
05.03.2015 14:22 9,4 C 9,4 C 66 % 1036,5 hPa 0,0 l/m 2 min 0 min 290 W/m 23,0 km/h (4 Bft)
05.03.2015 14:24 9,5 C 9,4 C 66 % 1036,5 hPa 0,0 l/m 2 min 0 min 392 W/m 14,6 km/h (3 Bft)
05.03.2015 14:26 9,5 C 9,4 C 66 % 1036,5 hPa 0,0 l/m 2 min 0 min 510 W/m 14,6 km/h (3 Bft)
05.03.2015 14:28 9,6 C 9,4 C 67 % 1036,5 hPa 0,0 l/m 2 min 0 min 499 W/m 10,5 km/h (2 Bft)
05.03.2015 14:30 9,7 C 9,4 C 67 % 1036,5 hPa 0,0 l/m 0 min 0 min 211 W/m 10,5 km/h (2 Bft)
05.03.2015 14:32 9,7 C 8,9 C 66 % 1036,5 hPa 0,0 l/m 2 min 0 min 245 W/m 14,6 km/h (3 Bft)
05.03.2015 14:34 9,7 C 9,4 C 65 % 1036,5 hPa 0,0 l/m 0 min 0 min 222 W/m 14,6 km/h (3 Bft)
05.03.2015 14:36 9,7 C 8,9 C 65 % 1036,5 hPa 0,0 l/m 0 min 0 min 217 W/m 18,8 km/h (3 Bft)
05.03.2015 14:38 9,7 C 10,0 C 65 % 1036,5 hPa 0,0 l/m 2 min 0 min 378 W/m 20,9 km/h (4 Bft)
05.03.2015 14:40 9,8 C 10,6 C 65 % 1036,5 hPa 0,0 l/m 2 min 0 min 444 W/m 14,6 km/h (3 Bft)
05.03.2015 14:42 9,8 C 10,6 C 65 % 1036,6 hPa 0,0 l/m 2 min 0 min 426 W/m 14,6 km/h (3 Bft)
05.03.2015 14:44 9,8 C 10,6 C 65 % 1036,5 hPa 0,0 l/m 2 min 0 min 286 W/m 14,6 km/h (3 Bft)
05.03.2015 14:46 9,9 C 10,6 C 65 % 1036,5 hPa 0,0 l/m 2 min 0 min 318 W/m 18,8 km/h (3 Bft)
05.03.2015 14:48 9,9 C 10,0 C 65 % 1036,5 hPa 0,0 l/m 2 min 0 min 340 W/m 20,9 km/h (4 Bft)
05.03.2015 14:50 9,9 C 10,0 C 65 % 1036,5 hPa 0,0 l/m 2 min 0 min 269 W/m 16,7 km/h (3 Bft)
05.03.2015 14:52 9,9 C 10,0 C 65 % 1036,5 hPa 0,0 l/m 0 min 0 min 222 W/m 16,7 km/h (3 Bft)
05.03.2015 14:54 9,9 C 9,4 C 65 % 1036,5 hPa 0,0 l/m 0 min 0 min 191 W/m 16,7 km/h (3 Bft)
05.03.2015 14:56 9,9 C 9,4 C 66 % 1036,4 hPa 0,0 l/m 0 min 0 min 185 W/m 12,6 km/h (3 Bft)
05.03.2015 14:58 9,9 C 9,4 C 66 % 1036,5 hPa 0,0 l/m 0 min 0 min 193 W/m 18,8 km/h (3 Bft)
05.03.2015 15:00 9,8 C 9,4 C 66 % 1036,5 hPa 0,0 l/m 0 min 0 min 205 W/m 20,9 km/h (4 Bft)
05.03.2015 15:02 9,8 C 8,9 C 65 % 1036,4 hPa 0,0 l/m 2 min 0 min 217 W/m 18,8 km/h (3 Bft)
05.03.2015 15:04 9,8 C 9,4 C 66 % 1036,4 hPa 0,0 l/m 2 min 0 min 224 W/m 23,0 km/h (4 Bft)
05.03.2015 15:06 9,7 C 9,4 C 67 % 1036,5 hPa 0,0 l/m 2 min 0 min 230 W/m 23,0 km/h (4 Bft)
05.03.2015 15:08 9,7 C 8,9 C 66 % 1036,5 hPa 0,0 l/m 0 min 0 min 210 W/m 16,7 km/h (3 Bft)
05.03.2015 15:10 9,6 C 8,9 C 67 % 1036,5 hPa 0,0 l/m 0 min 0 min 207 W/m 14,6 km/h (3 Bft)
05.03.2015 15:12 9,6 C 8,9 C 67 % 1036,5 hPa 0,0 l/m 2 min 0 min 225 W/m 14,6 km/h (3 Bft)
05.03.2015 15:14 9,6 C 8,9 C 67 % 1036,5 hPa 0,0 l/m 0 min 0 min 162 W/m 14,6 km/h (3 Bft)
05.03.2015 15:16 9,6 C 8,3 C 67 % 1036,5 hPa 0,0 l/m 0 min 0 min 162 W/m 14,6 km/h (3 Bft)
05.03.2015 15:18 9,5 C 8,3 C 67 % 1036,5 hPa 0,0 l/m 0 min 0 min 158 W/m 16,7 km/h (3 Bft)
05.03.2015 15:20 9,5 C 8,3 C 67 % 1036,5 hPa 0,0 l/m 0 min 0 min 143 W/m 18,8 km/h (3 Bft)
05.03.2015 15:22 9,4 C 8,3 C 67 % 1036,5 hPa 0,0 l/m 0 min 0 min 148 W/m 14,6 km/h (3 Bft)
05.03.2015 15:24 9,4 C 8,3 C 67 % 1036,5 hPa 0,0 l/m 0 min 0 min 188 W/m 18,8 km/h (3 Bft)
05.03.2015 15:26 9,4 C 8,3 C 68 % 1036,4 hPa 0,0 l/m 0 min 0 min 188 W/m 10,5 km/h (2 Bft)
05.03.2015 15:28 9,4 C 8,3 C 68 % 1036,5 hPa 0,0 l/m 0 min 0 min 166 W/m 14,6 km/h (3 Bft)
05.03.2015 15:30 9,4 C 8,3 C 68 % 1036,5 hPa 0,0 l/m 2 min 0 min 204 W/m 14,6 km/h (3 Bft)
05.03.2015 15:32 9,4 C 8,9 C 68 % 1036,5 hPa 0,0 l/m 2 min 0 min 238 W/m 14,6 km/h (3 Bft)
05.03.2015 15:34 9,4 C 8,9 C 68 % 1036,5 hPa 0,0 l/m 2 min 0 min 228 W/m 12,6 km/h (3 Bft)
05.03.2015 15:36 9,4 C 8,9 C 67 % 1036,6 hPa 0,0 l/m 2 min 0 min 232 W/m 16,7 km/h (3 Bft)
05.03.2015 15:38 9,4 C 9,4 C 68 % 1036,5 hPa 0,0 l/m 2 min 0 min 342 W/m 14,6 km/h (3 Bft)
05.03.2015 15:40 9,5 C 9,4 C 67 % 1036,5 hPa 0,0 l/m 2 min 0 min 220 W/m 18,8 km/h (3 Bft)
05.03.2015 15:42 9,5 C 8,9 C 67 % 1036,5 hPa 0,0 l/m 0 min 0 min 152 W/m 20,9 km/h (4 Bft)
05.03.2015 15:44 9,5 C 8,3 C 66 % 1036,5 hPa 0,0 l/m 0 min 0 min 141 W/m 14,6 km/h (3 Bft)
05.03.2015 15:46 9,5 C 8,3 C 66 % 1036,5 hPa 0,0 l/m 0 min 0 min 112 W/m 10,5 km/h (2 Bft)
05.03.2015 15:48 9,5 C 8,3 C 66 % 1036,5 hPa 0,0 l/m 0 min 0 min 117 W/m 20,9 km/h (4 Bft)
05.03.2015 15:50 9,4 C 7,8 C 66 % 1036,5 hPa 0,0 l/m 0 min 0 min 120 W/m 16,7 km/h (3 Bft)
05.03.2015 15:52 9,4 C 7,8 C 66 % 1036,6 hPa 0,0 l/m 0 min 0 min 142 W/m 16,7 km/h (3 Bft)
05.03.2015 15:54 9,4 C 7,8 C 66 % 1036,6 hPa 0,0 l/m 0 min 0 min 168 W/m 16,7 km/h (3 Bft)
05.03.2015 15:56 9,3 C 8,3 C 66 % 1036,6 hPa 0,0 l/m 2 min 0 min 188 W/m 14,6 km/h (3 Bft)
05.03.2015 15:58 9,4 C 8,3 C 67 % 1036,5 hPa 0,0 l/m 2 min 0 min 280 W/m 10,5 km/h (2 Bft)
05.03.2015 16:00 9,4 C 8,9 C 67 % 1036,5 hPa 0,0 l/m 2 min 0 min 364 W/m 12,6 km/h (3 Bft)
05.03.2015 16:02 9,4 C 8,9 C 68 % 1036,5 hPa 0,0 l/m 2 min 0 min 316 W/m 14,6 km/h (3 Bft)
05.03.2015 16:04 9,5 C 8,9 C 67 % 1036,5 hPa 0,0 l/m 2 min 0 min 291 W/m 18,8 km/h (3 Bft)
05.03.2015 16:06 9,6 C 8,9 C 67 % 1036,5 hPa 0,0 l/m 2 min 0 min 220 W/m 14,6 km/h (3 Bft)
05.03.2015 16:08 9,6 C 8,3 C 66 % 1036,5 hPa 0,0 l/m 2 min 0 min 213 W/m 16,7 km/h (3 Bft)
05.03.2015 16:10 9,6 C 8,3 C 66 % 1036,4 hPa 0,0 l/m 2 min 0 min 215 W/m 16,7 km/h (3 Bft)
05.03.2015 16:12 9,6 C 8,3 C 66 % 1036,5 hPa 0,0 l/m 2 min 0 min 200 W/m 18,8 km/h (3 Bft)
05.03.2015 16:14 9,6 C 8,3 C 67 % 1036,5 hPa 0,0 l/m 2 min 0 min 176 W/m 12,6 km/h (3 Bft)
05.03.2015 16:16 9,7 C 8,3 C 67 % 1036,5 hPa 0,0 l/m 2 min 0 min 159 W/m 18,8 km/h (3 Bft)
05.03.2015 16:18 9,7 C 8,3 C 67 % 1036,5 hPa 0,0 l/m 2 min 0 min 155 W/m 14,6 km/h (3 Bft)
05.03.2015 16:20 9,7 C 8,3 C 67 % 1036,5 hPa 0,0 l/m 0 min 0 min 140 W/m 14,6 km/h (3 Bft)
05.03.2015 16:22 9,6 C 8,3 C 67 % 1036,5 hPa 0,0 l/m 0 min 0 min 138 W/m 18,8 km/h (3 Bft)
05.03.2015 16:24 9,6 C 7,8 C 67 % 1036,5 hPa 0,0 l/m 2 min 0 min 143 W/m 16,7 km/h (3 Bft)
05.03.2015 16:26 9,6 C 7,8 C 67 % 1036,6 hPa 0,0 l/m 2 min 0 min 138 W/m 12,6 km/h (3 Bft)
05.03.2015 16:28 9,6 C 7,8 C 67 % 1036,5 hPa 0,0 l/m 0 min 0 min 129 W/m 14,6 km/h (3 Bft)
05.03.2015 16:30 9,5 C 7,8 C 67 % 1036,6 hPa 0,0 l/m 0 min 0 min 121 W/m 16,7 km/h (3 Bft)
05.03.2015 16:32 9,4 C 7,8 C 67 % 1036,6 hPa 0,0 l/m 0 min 0 min 125 W/m 12,6 km/h (3 Bft)
05.03.2015 16:34 9,4 C 7,8 C 68 % 1036,6 hPa 0,0 l/m 2 min 0 min 137 W/m 10,5 km/h (2 Bft)
05.03.2015 16:36 9,4 C 7,8 C 68 % 1036,5 hPa 0,0 l/m 2 min 0 min 131 W/m 16,7 km/h (3 Bft)
05.03.2015 16:38 9,3 C 7,8 C 68 % 1036,6 hPa 0,0 l/m 0 min 0 min 121 W/m 10,5 km/h (2 Bft)
05.03.2015 16:40 9,3 C 7,8 C 68 % 1036,5 hPa 0,0 l/m 0 min 0 min 119 W/m 10,5 km/h (2 Bft)
05.03.2015 16:42 9,3 C 7,8 C 68 % 1036,5 hPa 0,0 l/m 2 min 0 min 119 W/m 8,4 km/h (2 Bft)
05.03.2015 16:44 9,3 C 7,8 C 68 % 1036,5 hPa 0,0 l/m 2 min 0 min 122 W/m 8,4 km/h (2 Bft)
05.03.2015 16:46 9,3 C 7,8 C 68 % 1036,5 hPa 0,0 l/m 2 min 0 min 123 W/m 8,4 km/h (2 Bft)
05.03.2015 16:48 9,2 C 7,8 C 68 % 1036,5 hPa 0,0 l/m 2 min 0 min 114 W/m 10,5 km/h (2 Bft)
05.03.2015 16:50 9,2 C 7,8 C 68 % 1036,5 hPa 0,0 l/m 0 min 0 min 109 W/m 6,3 km/h (2 Bft)
05.03.2015 16:52 9,2 C 7,8 C 68 % 1036,5 hPa 0,0 l/m 0 min 0 min 102 W/m 10,5 km/h (2 Bft)
05.03.2015 16:54 9,2 C 7,8 C 69 % 1036,4 hPa 0,0 l/m 0 min 0 min 96 W/m 8,4 km/h (2 Bft)
05.03.2015 16:56 9,2 C 7,8 C 69 % 1036,5 hPa 0,0 l/m 0 min 0 min 90 W/m 8,4 km/h (2 Bft)
05.03.2015 16:58 9,1 C 7,2 C 69 % 1036,4 hPa 0,0 l/m 0 min 0 min 83 W/m 4,2 km/h (1 Bft)
05.03.2015 17:00 9,1 C 7,2 C 69 % 1036,4 hPa 0,0 l/m 0 min 0 min 80 W/m 14,6 km/h (3 Bft)
05.03.2015 17:02 9,1 C 7,2 C 69 % 1036,3 hPa 0,0 l/m 0 min 0 min 79 W/m 10,5 km/h (2 Bft)
05.03.2015 17:04 9,0 C 7,2 C 69 % 1036,2 hPa 0,0 l/m 0 min 0 min 79 W/m 12,6 km/h (3 Bft)
05.03.2015 17:06 9,0 C 7,2 C 69 % 1036,2 hPa 0,0 l/m 0 min 0 min 82 W/m 12,6 km/h (3 Bft)
05.03.2015 17:08 8,9 C 7,2 C 69 % 1036,2 hPa 0,0 l/m 0 min 0 min 80 W/m 14,6 km/h (3 Bft)
05.03.2015 17:10 8,9 C 7,2 C 69 % 1036,2 hPa 0,0 l/m 0 min 0 min 76 W/m 12,6 km/h (3 Bft)
05.03.2015 17:12 8,8 C 7,2 C 70 % 1036,2 hPa 0,0 l/m 0 min 0 min 70 W/m 8,4 km/h (2 Bft)
05.03.2015 17:14 8,8 C 7,2 C 70 % 1036,3 hPa 0,0 l/m 0 min 0 min 64 W/m 10,5 km/h (2 Bft)
05.03.2015 17:16 8,8 C 7,2 C 70 % 1036,2 hPa 0,0 l/m 0 min 0 min 58 W/m 8,4 km/h (2 Bft)
05.03.2015 17:18 8,7 C 6,7 C 70 % 1036,3 hPa 0,0 l/m 0 min 0 min 54 W/m 10,5 km/h (2 Bft)
05.03.2015 17:20 8,7 C 6,7 C 70 % 1036,3 hPa 0,0 l/m 0 min 0 min 54 W/m 8,4 km/h (2 Bft)
05.03.2015 17:22 8,7 C 6,7 C 70 % 1036,4 hPa 0,0 l/m 0 min 0 min 53 W/m 8,4 km/h (2 Bft)
05.03.2015 17:24 8,7 C 6,7 C 70 % 1036,4 hPa 0,0 l/m 0 min 0 min 52 W/m 8,4 km/h (2 Bft)
05.03.2015 17:26 8,7 C 6,7 C 70 % 1036,3 hPa 0,0 l/m 0 min 0 min 50 W/m 12,6 km/h (3 Bft)
05.03.2015 17:28 8,7 C 6,7 C 70 % 1036,3 hPa 0,0 l/m 0 min 0 min 49 W/m 8,4 km/h (2 Bft)
05.03.2015 17:30 8,6 C 6,7 C 71 % 1036,2 hPa 0,0 l/m 0 min 0 min 48 W/m 8,4 km/h (2 Bft)
05.03.2015 17:32 8,6 C 6,7 C 71 % 1036,2 hPa 0,0 l/m 0 min 0 min 46 W/m 4,2 km/h (1 Bft)
05.03.2015 17:34 8,6 C 6,7 C 71 % 1036,2 hPa 0,0 l/m 0 min 0 min 44 W/m 6,3 km/h (2 Bft)
05.03.2015 17:36 8,6 C 6,7 C 71 % 1036,2 hPa 0,0 l/m 0 min 0 min 42 W/m 4,2 km/h (1 Bft)
05.03.2015 17:38 8,5 C 6,1 C 71 % 1036,3 hPa 0,0 l/m 0 min 0 min 40 W/m 6,3 km/h (2 Bft)
05.03.2015 17:40 8,5 C 6,1 C 71 % 1036,3 hPa 0,0 l/m 0 min 0 min 39 W/m 6,3 km/h (2 Bft)
05.03.2015 17:42 8,5 C 6,1 C 71 % 1036,3 hPa 0,0 l/m 0 min 0 min 39 W/m 6,3 km/h (2 Bft)
05.03.2015 17:44 8,4 C 6,1 C 72 % 1036,4 hPa 0,0 l/m 0 min 0 min 37 W/m 6,3 km/h (2 Bft)
05.03.2015 17:46 8,4 C 6,1 C 72 % 1036,3 hPa 0,0 l/m 0 min 0 min 35 W/m 4,2 km/h (1 Bft)
05.03.2015 17:48 8,4 C 5,6 C 72 % 1036,2 hPa 0,0 l/m 0 min 0 min 33 W/m 4,2 km/h (1 Bft)
05.03.2015 17:50 8,4 C 5,6 C 72 % 1036,3 hPa 0,0 l/m 0 min 0 min 32 W/m 8,4 km/h (2 Bft)
05.03.2015 17:52 8,3 C 5,6 C 72 % 1036,3 hPa 0,0 l/m 0 min 0 min 30 W/m 10,5 km/h (2 Bft)
05.03.2015 17:54 8,3 C 5,6 C 72 % 1036,2 hPa 0,0 l/m 0 min 0 min 27 W/m 8,4 km/h (2 Bft)
05.03.2015 17:56 8,3 C 5,6 C 72 % 1036,3 hPa 0,0 l/m 0 min 0 min 25 W/m 8,4 km/h (2 Bft)
05.03.2015 17:58 8,2 C 5,6 C 72 % 1036,4 hPa 0,0 l/m 2 min 0 min 24 W/m 8,4 km/h (2 Bft)
05.03.2015 18:00 8,2 C 5,6 C 72 % 1036,3 hPa 0,0 l/m 2 min 0 min 21 W/m 6,3 km/h (2 Bft)
05.03.2015 18:02 8,2 C 5,6 C 72 % 1036,4 hPa 0,0 l/m 2 min 0 min 19 W/m 10,5 km/h (2 Bft)
05.03.2015 18:06 8,1 C 5,6 C 73 % 1036,3 hPa 0,0 l/m 2 min 0 min 17 W/m 12,6 km/h (3 Bft)
05.03.2015 18:08 8,1 C 5,0 C 73 % 1036,3 hPa 0,0 l/m 2 min 0 min 15 W/m 6,3 km/h (2 Bft)
05.03.2015 18:10 8,0 C 5,0 C 73 % 1036,3 hPa 0,0 l/m 2 min 0 min 13 W/m 8,4 km/h (2 Bft)
05.03.2015 18:12 8,0 C 5,0 C 73 % 1036,3 hPa 0,0 l/m 0 min 0 min 12 W/m 8,4 km/h (2 Bft)
05.03.2015 18:14 7,9 C 5,0 C 73 % 1036,3 hPa 0,0 l/m 0 min 0 min 10 W/m 6,3 km/h (2 Bft)
05.03.2015 18:16 7,9 C 5,0 C 73 % 1036,4 hPa 0,0 l/m 0 min 0 min 8 W/m 8,4 km/h (2 Bft)
05.03.2015 18:18 7,9 C 4,4 C 73 % 1036,3 hPa 0,0 l/m 0 min 0 min 7 W/m 6,3 km/h (2 Bft)
05.03.2015 18:20 7,8 C 4,4 C 73 % 1036,4 hPa 0,0 l/m 0 min 0 min 5 W/m 6,3 km/h (2 Bft)
05.03.2015 18:22 7,8 C 4,4 C 73 % 1036,3 hPa 0,0 l/m 0 min 0 min 5 W/m 4,2 km/h (1 Bft)
05.03.2015 18:24 7,7 C 4,4 C 73 % 1036,3 hPa 0,0 l/m 0 min 0 min 1 W/m 4,2 km/h (1 Bft)
05.03.2015 18:26 7,7 C 3,9 C 73 % 1036,4 hPa 0,0 l/m 0 min 0 min 0 W/m 2,1 km/h (1 Bft)
05.03.2015 18:28 7,7 C 3,9 C 73 % 1036,4 hPa 0,0 l/m 0 min 0 min 0 W/m 6,3 km/h (2 Bft)
05.03.2015 18:30 7,7 C 3,9 C 73 % 1036,4 hPa 0,0 l/m 0 min 0 min 0 W/m 4,2 km/h (1 Bft)
05.03.2015 18:32 7,6 C 3,9 C 73 % 1036,4 hPa 0,0 l/m 0 min 0 min 0 W/m 4,2 km/h (1 Bft)
05.03.2015 18:34 7,6 C 3,9 C 74 % 1036,5 hPa 0,0 l/m 0 min 0 min 4 W/m 4,2 km/h (1 Bft)
05.03.2015 18:36 7,5 C 3,9 C 73 % 1036,5 hPa 0,0 l/m 0 min 0 min 3 W/m 4,2 km/h (1 Bft)
05.03.2015 18:38 7,5 C 3,9 C 73 % 1036,4 hPa 0,0 l/m 0 min 0 min 0 W/m 2,1 km/h (1 Bft)
05.03.2015 18:40 7,4 C 3,9 C 73 % 1036,4 hPa 0,0 l/m 0 min 0 min 0 W/m 6,3 km/h (2 Bft)
05.03.2015 18:42 7,4 C 3,3 C 73 % 1036,5 hPa 0,0 l/m 0 min 0 min 0 W/m 6,3 km/h (2 Bft)
05.03.2015 18:44 7,3 C 3,3 C 73 % 1036,4 hPa 0,0 l/m 0 min 0 min 0 W/m 2,1 km/h (1 Bft)
05.03.2015 18:46 7,3 C 3,3 C 73 % 1036,5 hPa 0,0 l/m 0 min 0 min 0 W/m 2,1 km/h (1 Bft)
05.03.2015 18:48 7,2 C 3,3 C 74 % 1036,5 hPa 0,0 l/m 0 min 0 min 0 W/m 4,2 km/h (1 Bft)
05.03.2015 18:50 7,2 C 3,3 C 74 % 1036,5 hPa 0,0 l/m 0 min 0 min 0 W/m 2,1 km/h (1 Bft)
05.03.2015 18:52 7,1 C 3,3 C 74 % 1036,5 hPa 0,0 l/m 0 min 0 min 0 W/m 2,1 km/h (1 Bft)
05.03.2015 18:54 7,1 C 3,3 C 74 % 1036,5 hPa 0,0 l/m 0 min 0 min 0 W/m 2,1 km/h (1 Bft)
05.03.2015 18:56 7,0 C 2,8 C 74 % 1036,5 hPa 0,0 l/m 0 min 0 min 0 W/m 2,1 km/h (1 Bft)
05.03.2015 18:58 6,9 C 2,8 C 74 % 1036,6 hPa 0,0 l/m 0 min 0 min 0 W/m 2,1 km/h (1 Bft)
05.03.2015 19:00 6,9 C 2,8 C 74 % 1036,6 hPa 0,0 l/m 0 min 0 min 0 W/m 2,1 km/h (1 Bft)
05.03.2015 19:02 6,8 C 2,8 C 74 % 1036,6 hPa 0,0 l/m 0 min 0 min 0 W/m 2,1 km/h (1 Bft)
05.03.2015 19:04 6,7 C 2,8 C 75 % 1036,6 hPa 0,0 l/m 0 min 0 min 0 W/m 2,1 km/h (1 Bft)
05.03.2015 19:06 6,7 C 2,8 C 74 % 1036,6 hPa 0,0 l/m 0 min 0 min 0 W/m 2,1 km/h (1 Bft)
05.03.2015 19:08 6,6 C 2,8 C 75 % 1036,7 hPa 0,0 l/m 0 min 0 min 0 W/m 2,1 km/h (1 Bft)
05.03.2015 19:10 6,5 C 2,8 C 75 % 1036,7 hPa 0,0 l/m 0 min 0 min 0 W/m 4,2 km/h (1 Bft)
05.03.2015 19:12 6,4 C 2,8 C 75 % 1036,6 hPa 0,0 l/m 0 min 0 min 0 W/m 2,1 km/h (1 Bft)
05.03.2015 19:14 6,4 C 2,2 C 75 % 1036,7 hPa 0,0 l/m 0 min 0 min 0 W/m 2,1 km/h (1 Bft)
05.03.2015 19:16 6,4 C 2,2 C 76 % 1036,7 hPa 0,0 l/m 0 min 0 min 0 W/m 2,1 km/h (1 Bft)
05.03.2015 19:18 6,3 C 2,2 C 76 % 1036,7 hPa 0,0 l/m 0 min 0 min 0 W/m 2,1 km/h (1 Bft)
05.03.2015 19:20 6,2 C 2,2 C 76 % 1036,7 hPa 0,0 l/m 0 min 0 min 0 W/m 2,1 km/h (1 Bft)
05.03.2015 19:22 6,1 C 2,2 C 76 % 1036,7 hPa 0,0 l/m 0 min 0 min 0 W/m 2,1 km/h (1 Bft)
05.03.2015 19:24 6,1 C 2,2 C 76 % 1036,7 hPa 0,0 l/m 0 min 0 min 0 W/m 2,1 km/h (1 Bft)
05.03.2015 19:26 6,0 C 2,2 C 77 % 1036,8 hPa 0,0 l/m 0 min 0 min 0 W/m 2,1 km/h (1 Bft)
05.03.2015 19:28 5,9 C 2,2 C 77 % 1036,8 hPa 0,0 l/m 0 min 0 min 0 W/m 4,2 km/h (1 Bft)
05.03.2015 19:30 5,8 C 2,2 C 77 % 1036,8 hPa 0,0 l/m 0 min 0 min 0 W/m 4,2 km/h (1 Bft)
05.03.2015 19:32 5,8 C 2,2 C 78 % 1036,8 hPa 0,0 l/m 0 min 0 min 0 W/m 4,2 km/h (1 Bft)
05.03.2015 19:34 5,7 C 2,2 C 78 % 1036,8 hPa 0,0 l/m 0 min 0 min 0 W/m 4,2 km/h (1 Bft)
05.03.2015 19:36 5,6 C 2,2 C 78 % 1036,9 hPa 0,0 l/m 0 min 0 min 0 W/m 4,2 km/h (1 Bft)
05.03.2015 19:38 5,6 C 1,7 C 79 % 1036,9 hPa 0,0 l/m 0 min 0 min 0 W/m 4,2 km/h (1 Bft)
05.03.2015 19:40 5,5 C 1,7 C 79 % 1036,9 hPa 0,0 l/m 0 min 0 min 0 W/m 4,2 km/h (1 Bft)
05.03.2015 19:42 5,4 C 1,7 C 79 % 1036,9 hPa 0,0 l/m 0 min 0 min 0 W/m 4,2 km/h (1 Bft)
05.03.2015 19:44 5,4 C 1,7 C 79 % 1036,9 hPa 0,0 l/m 0 min 0 min 0 W/m 4,2 km/h (1 Bft)
05.03.2015 19:46 5,3 C 1,7 C 79 % 1036,8 hPa 0,0 l/m 0 min 0 min 0 W/m 4,2 km/h (1 Bft)
05.03.2015 19:48 5,3 C 1,7 C 79 % 1036,9 hPa 0,0 l/m 0 min 0 min 0 W/m 4,2 km/h (1 Bft)
05.03.2015 19:50 5,2 C 1,7 C 80 % 1036,8 hPa 0,0 l/m 0 min 0 min 0 W/m 4,2 km/h (1 Bft)
05.03.2015 19:52 5,2 C 1,7 C 80 % 1036,8 hPa 0,0 l/m 0 min 0 min 0 W/m 4,2 km/h (1 Bft)
05.03.2015 19:54 5,1 C 1,7 C 81 % 1036,8 hPa 0,0 l/m 0 min 0 min 0 W/m 4,2 km/h (1 Bft)
05.03.2015 19:56 5,1 C 1,7 C 81 % 1036,8 hPa 0,0 l/m 0 min 0 min 0 W/m 4,2 km/h (1 Bft)
05.03.2015 19:58 5,0 C 1,7 C 81 % 1036,8 hPa 0,0 l/m 0 min 0 min 0 W/m 4,2 km/h (1 Bft)
05.03.2015 20:00 4,9 C 1,7 C 81 % 1036,9 hPa 0,0 l/m 0 min 0 min 0 W/m 2,1 km/h (1 Bft)
05.03.2015 20:02 4,9 C 1,7 C 81 % 1036,8 hPa 0,0 l/m 0 min 0 min 0 W/m 4,2 km/h (1 Bft)
05.03.2015 20:04 4,8 C 1,7 C 81 % 1036,9 hPa 0,0 l/m 0 min 0 min 0 W/m 4,2 km/h (1 Bft)
05.03.2015 20:06 4,8 C 1,7 C 81 % 1036,9 hPa 0,0 l/m 0 min 0 min 0 W/m 4,2 km/h (1 Bft)
05.03.2015 20:08 4,7 C 1,7 C 81 % 1036,8 hPa 0,0 l/m 0 min 0 min 0 W/m 4,2 km/h (1 Bft)
05.03.2015 20:10 4,7 C 1,1 C 82 % 1036,9 hPa 0,0 l/m 0 min 0 min 0 W/m 4,2 km/h (1 Bft)
05.03.2015 20:12 4,7 C 1,1 C 82 % 1036,8 hPa 0,0 l/m 0 min 0 min 0 W/m 4,2 km/h (1 Bft)
05.03.2015 20:14 4,6 C 1,1 C 81 % 1036,8 hPa 0,0 l/m 0 min 0 min 0 W/m 6,3 km/h (2 Bft)
05.03.2015 20:16 4,6 C 1,1 C 82 % 1036,8 hPa 0,0 l/m 0 min 0 min 0 W/m 6,3 km/h (2 Bft)
05.03.2015 20:18 4,5 C 1,1 C 82 % 1036,8 hPa 0,0 l/m 0 min 0 min 0 W/m 6,3 km/h (2 Bft)
05.03.2015 20:20 4,4 C 1,1 C 82 % 1036,8 hPa 0,0 l/m 0 min 0 min 0 W/m 4,2 km/h (1 Bft)
05.03.2015 20:22 4,4 C 1,1 C 82 % 1036,8 hPa 0,0 l/m 0 min 0 min 0 W/m 4,2 km/h (1 Bft)
05.03.2015 20:24 4,4 C 1,1 C 83 % 1036,8 hPa 0,0 l/m 0 min 0 min 0 W/m 4,2 km/h (1 Bft)
05.03.2015 20:26 4,3 C 1,1 C 83 % 1036,8 hPa 0,0 l/m 0 min 0 min 0 W/m 4,2 km/h (1 Bft)
05.03.2015 20:28 4,3 C 1,1 C 83 % 1036,9 hPa 0,0 l/m 0 min 0 min 0 W/m 6,3 km/h (2 Bft)
05.03.2015 20:30 4,2 C 1,1 C 83 % 1036,8 hPa 0,0 l/m 0 min 0 min 0 W/m 6,3 km/h (2 Bft)
05.03.2015 20:32 4,2 C 1,1 C 83 % 1036,8 hPa 0,0 l/m 0 min 0 min 0 W/m 4,2 km/h (1 Bft)
05.03.2015 20:34 4,2 C 1,1 C 83 % 1036,9 hPa 0,0 l/m 0 min 0 min 0 W/m 4,2 km/h (1 Bft)
05.03.2015 20:36 4,1 C 1,1 C 83 % 1036,8 hPa 0,0 l/m 0 min 0 min 0 W/m 4,2 km/h (1 Bft)
05.03.2015 20:38 4,1 C 1,1 C 83 % 1036,8 hPa 0,0 l/m 0 min 0 min 0 W/m 4,2 km/h (1 Bft)
05.03.2015 20:40 4,1 C 1,1 C 83 % 1036,8 hPa 0,0 l/m 0 min 0 min 0 W/m 4,2 km/h (1 Bft)
05.03.2015 20:42 4,0 C 1,1 C 83 % 1036,8 hPa 0,0 l/m 0 min 0 min 0 W/m 4,2 km/h (1 Bft)
05.03.2015 20:44 3,9 C 1,1 C 83 % 1036,8 hPa 0,0 l/m 0 min 0 min 0 W/m 4,2 km/h (1 Bft)
05.03.2015 20:46 3,9 C 1,1 C 83 % 1036,7 hPa 0,0 l/m 0 min 0 min 0 W/m 4,2 km/h (1 Bft)
05.03.2015 20:48 3,9 C 0,6 C 83 % 1036,7 hPa 0,0 l/m 0 min 0 min 0 W/m 4,2 km/h (1 Bft)
05.03.2015 20:50 3,8 C 0,6 C 83 % 1036,8 hPa 0,0 l/m 0 min 0 min 0 W/m 4,2 km/h (1 Bft)
05.03.2015 20:52 3,8 C 0,6 C 83 % 1036,8 hPa 0,0 l/m 0 min 0 min 0 W/m 4,2 km/h (1 Bft)
05.03.2015 20:54 3,7 C 0,6 C 83 % 1036,7 hPa 0,0 l/m 0 min 0 min 0 W/m 4,2 km/h (1 Bft)
05.03.2015 20:56 3,7 C 0,6 C 83 % 1036,8 hPa 0,0 l/m 0 min 0 min 0 W/m 4,2 km/h (1 Bft)
05.03.2015 20:58 3,7 C 0,6 C 83 % 1036,8 hPa 0,0 l/m 0 min 0 min 0 W/m 4,2 km/h (1 Bft)
05.03.2015 21:00 3,6 C 0,6 C 84 % 1036,8 hPa 0,0 l/m 0 min 0 min 0 W/m 4,2 km/h (1 Bft)
05.03.2015 21:02 3,6 C 0,6 C 84 % 1036,8 hPa 0,0 l/m 0 min 0 min 0 W/m 4,2 km/h (1 Bft)
05.03.2015 21:04 3,5 C 0,6 C 84 % 1036,8 hPa 0,0 l/m 0 min 0 min 0 W/m 4,2 km/h (1 Bft)
05.03.2015 21:06 3,4 C 0,6 C 83 % 1036,9 hPa 0,0 l/m 0 min 0 min 0 W/m 4,2 km/h (1 Bft)
05.03.2015 21:08 3,4 C 0,6 C 84 % 1036,9 hPa 0,0 l/m 0 min 0 min 0 W/m 4,2 km/h (1 Bft)
05.03.2015 21:10 3,4 C 0,6 C 84 % 1036,8 hPa 0,0 l/m 0 min 0 min 0 W/m 4,2 km/h (1 Bft)
05.03.2015 21:12 3,4 C 0,6 C 84 % 1036,9 hPa 0,0 l/m 0 min 0 min 0 W/m 4,2 km/h (1 Bft)
05.03.2015 21:14 3,3 C 0,6 C 84 % 1036,8 hPa 0,0 l/m 0 min 0 min 0 W/m 4,2 km/h (1 Bft)
05.03.2015 21:16 3,3 C 0,6 C 85 % 1036,9 hPa 0,0 l/m 0 min 0 min 0 W/m 6,3 km/h (2 Bft)
05.03.2015 21:18 3,3 C 0,6 C 85 % 1036,8 hPa 0,0 l/m 0 min 0 min 0 W/m 4,2 km/h (1 Bft)
05.03.2015 21:20 3,3 C 0,6 C 85 % 1036,8 hPa 0,0 l/m 0 min 0 min 0 W/m 6,3 km/h (2 Bft)
05.03.2015 21:22 3,2 C 0,6 C 86 % 1036,9 hPa 0,0 l/m 0 min 0 min 0 W/m 6,3 km/h (2 Bft)
05.03.2015 21:24 3,2 C 0,6 C 86 % 1036,8 hPa 0,0 l/m 0 min 0 min 0 W/m 4,2 km/h (1 Bft)
05.03.2015 21:26 3,2 C 0,6 C 86 % 1036,9 hPa 0,0 l/m 0 min 0 min 0 W/m 4,2 km/h (1 Bft)
05.03.2015 21:28 3,2 C 0,6 C 86 % 1036,8 hPa 0,0 l/m 0 min 0 min 0 W/m 6,3 km/h (2 Bft)
05.03.2015 21:30 3,1 C 0,6 C 86 % 1036,8 hPa 0,0 l/m 0 min 0 min 0 W/m 6,3 km/h (2 Bft)
05.03.2015 21:32 3,1 C 0,6 C 86 % 1036,9 hPa 0,0 l/m 0 min 0 min 0 W/m 4,2 km/h (1 Bft)
05.03.2015 21:34 3,1 C 0,6 C 87 % 1036,9 hPa 0,0 l/m 0 min 0 min 0 W/m 6,3 km/h (2 Bft)
05.03.2015 21:36 3,1 C 0,6 C 87 % 1036,9 hPa 0,0 l/m 0 min 0 min 0 W/m 6,3 km/h (2 Bft)
05.03.2015 21:38 3,0 C 0,6 C 87 % 1036,9 hPa 0,0 l/m 0 min 0 min 0 W/m 4,2 km/h (1 Bft)
05.03.2015 21:40 3,0 C 0,6 C 87 % 1036,9 hPa 0,0 l/m 0 min 0 min 0 W/m 6,3 km/h (2 Bft)
05.03.2015 21:42 2,9 C 0,6 C 87 % 1036,8 hPa 0,0 l/m 0 min 0 min 0 W/m 6,3 km/h (2 Bft)
05.03.2015 21:44 2,9 C 0,6 C 87 % 1036,9 hPa 0,0 l/m 0 min 0 min 0 W/m 4,2 km/h (1 Bft)
05.03.2015 21:46 2,9 C 0,6 C 87 % 1036,9 hPa 0,0 l/m 0 min 0 min 0 W/m 6,3 km/h (2 Bft)
05.03.2015 21:48 2,9 C 0,6 C 87 % 1036,9 hPa 0,0 l/m 0 min 0 min 0 W/m 6,3 km/h (2 Bft)
05.03.2015 21:50 2,9 C 0,6 C 87 % 1037,0 hPa 0,0 l/m 0 min 0 min 0 W/m 4,2 km/h (1 Bft)
05.03.2015 21:52 2,9 C 0,6 C 87 % 1037,1 hPa 0,0 l/m 0 min 0 min 0 W/m 6,3 km/h (2 Bft)
05.03.2015 21:54 2,8 C 0,6 C 87 % 1037,0 hPa 0,0 l/m 0 min 0 min 0 W/m 4,2 km/h (1 Bft)
05.03.2015 21:56 2,8 C 0,6 C 87 % 1037,1 hPa 0,0 l/m 0 min 0 min 0 W/m 4,2 km/h (1 Bft)
05.03.2015 21:58 2,8 C 0,6 C 88 % 1037,1 hPa 0,0 l/m 0 min 0 min 0 W/m 4,2 km/h (1 Bft)
05.03.2015 22:00 2,8 C 0,6 C 88 % 1037,1 hPa 0,0 l/m 0 min 0 min 0 W/m 4,2 km/h (1 Bft)
05.03.2015 22:02 2,8 C 0,0 C 88 % 1037,1 hPa 0,0 l/m 0 min 0 min 0 W/m 4,2 km/h (1 Bft)
05.03.2015 22:04 2,8 C 0,0 C 88 % 1037,1 hPa 0,0 l/m 0 min 0 min 0 W/m 6,3 km/h (2 Bft)
05.03.2015 22:06 2,7 C 0,0 C 88 % 1037,1 hPa 0,0 l/m 0 min 0 min 0 W/m 4,2 km/h (1 Bft)
05.03.2015 22:08 2,7 C 0,0 C 88 % 1037,0 hPa 0,0 l/m 0 min 0 min 0 W/m 4,2 km/h (1 Bft)
05.03.2015 22:10 2,7 C 0,0 C 88 % 1037,1 hPa 0,0 l/m 0 min 0 min 0 W/m 4,2 km/h (1 Bft)
05.03.2015 22:12 2,7 C 0,0 C 88 % 1037,1 hPa 0,0 l/m 0 min 0 min 0 W/m 4,2 km/h (1 Bft)
05.03.2015 22:14 2,7 C 0,0 C 88 % 1037,1 hPa 0,0 l/m 0 min 0 min 0 W/m 6,3 km/h (2 Bft)
05.03.2015 22:16 2,7 C 0,0 C 88 % 1037,1 hPa 0,0 l/m 0 min 0 min 0 W/m 4,2 km/h (1 Bft)
05.03.2015 22:18 2,6 C 0,0 C 88 % 1037,1 hPa 0,0 l/m 0 min 0 min 0 W/m 6,3 km/h (2 Bft)
05.03.2015 22:20 2,6 C 0,0 C 88 % 1037,0 hPa 0,0 l/m 0 min 0 min 0 W/m 6,3 km/h (2 Bft)
05.03.2015 22:22 2,6 C 0,0 C 88 % 1037,1 hPa 0,0 l/m 0 min 0 min 0 W/m 6,3 km/h (2 Bft)
05.03.2015 22:24 2,6 C 0,0 C 88 % 1037,1 hPa 0,0 l/m 0 min 0 min 0 W/m 6,3 km/h (2 Bft)
05.03.2015 22:26 2,5 C 0,0 C 88 % 1037,2 hPa 0,0 l/m 0 min 0 min 0 W/m 6,3 km/h (2 Bft)
05.03.2015 22:28 2,5 C 0,0 C 88 % 1037,2 hPa 0,0 l/m 0 min 0 min 0 W/m 6,3 km/h (2 Bft)
05.03.2015 22:30 2,4 C 0,0 C 88 % 1037,3 hPa 0,0 l/m 0 min 0 min 0 W/m 6,3 km/h (2 Bft)
05.03.2015 22:32 2,4 C 0,0 C 88 % 1037,3 hPa 0,0 l/m 0 min 0 min 0 W/m 6,3 km/h (2 Bft)
05.03.2015 22:34 2,4 C 0,0 C 88 % 1037,2 hPa 0,0 l/m 0 min 0 min 0 W/m 6,3 km/h (2 Bft)
05.03.2015 22:36 2,4 C 0,0 C 88 % 1037,3 hPa 0,0 l/m 0 min 0 min 0 W/m 6,3 km/h (2 Bft)
05.03.2015 22:38 2,3 C 0,0 C 88 % 1037,2 hPa 0,0 l/m 0 min 0 min 0 W/m 6,3 km/h (2 Bft)
05.03.2015 22:40 2,3 C 0,0 C 88 % 1037,2 hPa 0,0 l/m 0 min 0 min 0 W/m 8,4 km/h (2 Bft)
05.03.2015 22:42 2,3 C 0,0 C 88 % 1037,2 hPa 0,0 l/m 0 min 0 min 0 W/m 6,3 km/h (2 Bft)
05.03.2015 22:44 2,3 C 0,0 C 88 % 1037,1 hPa 0,0 l/m 0 min 0 min 0 W/m 6,3 km/h (2 Bft)
05.03.2015 22:46 2,2 C 0,0 C 88 % 1037,2 hPa 0,0 l/m 0 min 0 min 0 W/m 6,3 km/h (2 Bft)
05.03.2015 22:48 2,2 C 0,0 C 88 % 1037,2 hPa 0,0 l/m 0 min 0 min 0 W/m 6,3 km/h (2 Bft)
05.03.2015 22:50 2,2 C 0,0 C 88 % 1037,1 hPa 0,0 l/m 0 min 0 min 0 W/m 6,3 km/h (2 Bft)
05.03.2015 22:52 2,2 C 0,0 C 89 % 1037,2 hPa 0,0 l/m 0 min 0 min 0 W/m 6,3 km/h (2 Bft)
05.03.2015 22:54 2,2 C 0,0 C 89 % 1037,2 hPa 0,0 l/m 0 min 0 min 0 W/m 6,3 km/h (2 Bft)
05.03.2015 22:56 2,2 C 0,0 C 89 % 1037,2 hPa 0,0 l/m 0 min 0 min 0 W/m 4,2 km/h (1 Bft)
05.03.2015 22:58 2,1 C 0,0 C 89 % 1037,2 hPa 0,0 l/m 0 min 0 min 0 W/m 6,3 km/h (2 Bft)
05.03.2015 23:00 2,1 C 0,0 C 89 % 1037,1 hPa 0,0 l/m 0 min 0 min 0 W/m 8,4 km/h (2 Bft)
05.03.2015 23:02 2,1 C 0,0 C 89 % 1037,1 hPa 0,0 l/m 0 min 0 min 0 W/m 6,3 km/h (2 Bft)
05.03.2015 23:04 2,1 C 0,0 C 89 % 1037,1 hPa 0,0 l/m 0 min 0 min 0 W/m 6,3 km/h (2 Bft)
05.03.2015 23:06 2,1 C 0,0 C 89 % 1037,0 hPa 0,0 l/m 0 min 0 min 0 W/m 6,3 km/h (2 Bft)
05.03.2015 23:08 2,1 C 0,0 C 89 % 1037,0 hPa 0,0 l/m 0 min 0 min 0 W/m 6,3 km/h (2 Bft)
05.03.2015 23:10 2,1 C 0,0 C 89 % 1037,1 hPa 0,0 l/m 0 min 0 min 0 W/m 8,4 km/h (2 Bft)
05.03.2015 23:12 2,1 C 0,0 C 89 % 1037,0 hPa 0,0 l/m 0 min 0 min 0 W/m 4,2 km/h (1 Bft)
05.03.2015 23:14 2,1 C 0,0 C 89 % 1037,0 hPa 0,0 l/m 0 min 0 min 0 W/m 6,3 km/h (2 Bft)
05.03.2015 23:16 2,1 C 0,0 C 89 % 1037,0 hPa 0,0 l/m 0 min 0 min 0 W/m 6,3 km/h (2 Bft)
05.03.2015 23:18 2,1 C 0,0 C 89 % 1036,9 hPa 0,0 l/m 0 min 0 min 0 W/m 6,3 km/h (2 Bft)
05.03.2015 23:20 2,1 C -0,6 C 89 % 1036,9 hPa 0,0 l/m 0 min 0 min 0 W/m 6,3 km/h (2 Bft)
05.03.2015 23:22 2,0 C -0,6 C 89 % 1036,9 hPa 0,0 l/m 0 min 0 min 0 W/m 8,4 km/h (2 Bft)
05.03.2015 23:24 2,0 C 0,0 C 89 % 1036,9 hPa 0,0 l/m 0 min 0 min 0 W/m 8,4 km/h (2 Bft)
05.03.2015 23:26 2,0 C 0,0 C 90 % 1036,9 hPa 0,0 l/m 0 min 0 min 0 W/m 6,3 km/h (2 Bft)
05.03.2015 23:28 2,0 C 0,0 C 90 % 1037,0 hPa 0,0 l/m 0 min 0 min 0 W/m 6,3 km/h (2 Bft)
05.03.2015 23:30 1,9 C 0,0 C 90 % 1036,9 hPa 0,0 l/m 0 min 0 min 0 W/m 4,2 km/h (1 Bft)
05.03.2015 23:32 1,9 C -0,6 C 90 % 1036,9 hPa 0,0 l/m 0 min 0 min 0 W/m 4,2 km/h (1 Bft)
05.03.2015 23:34 1,9 C -0,6 C 90 % 1036,9 hPa 0,0 l/m 0 min 0 min 0 W/m 4,2 km/h (1 Bft)
05.03.2015 23:36 1,9 C -0,6 C 90 % 1036,9 hPa 0,0 l/m 0 min 0 min 0 W/m 4,2 km/h (1 Bft)
05.03.2015 23:38 1,9 C -0,6 C 90 % 1036,9 hPa 0,0 l/m 0 min 0 min 0 W/m 4,2 km/h (1 Bft)
05.03.2015 23:40 1,9 C -0,6 C 90 % 1036,9 hPa 0,0 l/m 0 min 0 min 0 W/m 4,2 km/h (1 Bft)
05.03.2015 23:42 1,9 C -0,6 C 90 % 1036,8 hPa 0,0 l/m 0 min 0 min 0 W/m 2,1 km/h (1 Bft)
05.03.2015 23:44 1,8 C -0,6 C 90 % 1036,8 hPa 0,0 l/m 0 min 0 min 0 W/m 4,2 km/h (1 Bft)
05.03.2015 23:46 1,8 C -0,6 C 90 % 1036,8 hPa 0,0 l/m 0 min 0 min 0 W/m 4,2 km/h (1 Bft)
05.03.2015 23:48 1,8 C -0,6 C 90 % 1036,9 hPa 0,0 l/m 0 min 0 min 0 W/m 6,3 km/h (2 Bft)
05.03.2015 23:50 1,8 C -0,6 C 90 % 1036,9 hPa 0,0 l/m 0 min 0 min 0 W/m 6,3 km/h (2 Bft)
05.03.2015 23:52 1,7 C -0,6 C 90 % 1036,9 hPa 0,0 l/m 0 min 0 min 0 W/m 6,3 km/h (2 Bft)
05.03.2015 23:54 1,7 C -0,6 C 90 % 1036,8 hPa 0,0 l/m 0 min 0 min 0 W/m 4,2 km/h (1 Bft)
05.03.2015 23:56 1,7 C -0,6 C 90 % 1036,8 hPa 0,0 l/m 0 min 0 min 0 W/m 4,2 km/h (1 Bft)
05.03.2015 23:58 1,7 C -0,6 C 90 % 1036,8 hPa 0,0 l/m 0 min 0 min 0 W/m 2,1 km/h (1 Bft)
_ Min-Zeit 23:52 23:20 14:34 00:00 - - - - 06:22
Minimum _ 1,7 C -0,6 C 65 % 1032,3 hPa - - - - 2,1 km/h (1 Bft)
_ Max-Zeit 14:46 14:40 09:36 11:00 00:00 10:10 00:00 12:40 00:26
Maximum _ 9,9 C 10,6 C 97 % 1037,8 hPa 0,0 l/m 2 min 0 min 583 W/m 25,1 km/h
NW (4 Bft)
Durchschnitt _ 5,1 C 3,6 C 86 % 1036,3 hPa #0,0 l/m #4:38 h #0 min. 173 W/m 9,0 km/h (2 Bft)
© 2015 W. Hausmann